[[{"header":{"parameterUnit":"m.s-1","parameterCategory":1,"la1":30.6,"la2":29.2853,"lo1":-89.7004,"lo2":-87.6739,"dy":0.0162,"dx":0.0183,"nx":112,"ny":82,"refTime":"2023-10-28T06:00:00:Z","depth":0,"parameterNumber":2,"parameterNumberName":"U-component_of_WINDS"},"data":[0.0,0.0,0.0,0.0,0.0,0.0,0.0,0.0,0.0,0.0,0.0,0.0,0.0,0.0,0.0,0.0,0.0,0.0,0.0,0.0,0.0,0.0,0.0,0.0,0.0,0.0,0.0,0.0,0.0,0.0,0.0,0.0,0.0,0.0,0.0,0.0,0.0,0.0,0.0,0.0,0.0,0.0,0.0,0.0,0.0,0.0,0.0,0.0,0.0,0.0,0.0,0.0,0.0,0.0,0.0,0.0,0.0,0.0,0.0,0.0,0.0,0.0,0.0,0.0,0.0,0.0,0.0,0.0,0.0,0.0,0.0,0.0,0.0,0.0,0.0,0.0,0.0,0.0,0.0,0.0,0.0,0.0,0.0,0.0,0.0,0.0,0.0,0.0,0.0,0.0,6.8984,7.6015,8.8672,9.691,9.7656,9.476,8.7422,7.4531,0.0,0.0,0.0,0.0,0.0,0.0,0.0,0.0,0.0,0.0,0.0,0.0,0.0,0.0,0.0,0.0,0.0,0.0,0.0,0.0,0.0,0.0,0.0,0.0,0.0,0.0,0.0,0.0,0.0,0.0,0.0,0.0,0.0,0.0,0.0,0.0,0.0,0.0,0.0,0.0,0.0,0.0,0.0,0.0,0.0,0.0,0.0,0.0,0.0,0.0,0.0,0.0,0.0,0.0,0.0,0.0,0.0,0.0,0.0,0.0,0.0,0.0,0.0,0.0,0.0,0.0,0.0,0.0,0.0,0.0,0.0,0.0,0.0,0.0,0.0,0.0,0.0,0.0,0.0,0.0,0.0,0.0,0.0,0.0,0.0,0.0,0.0,0.0,0.0,0.0,0.0,0.0,0.0,0.0,0.0,0.0,0.0,0.0,0.0,0.0,0.0,0.0,0.0,0.0,6.9492,8.4922,9.3125,9.7578,9.7694,9.2031,8.4765,7.6055,0.0,0.0,0.0,0.0,0.0,0.0,0.0,0.0,0.0,0.0,0.0,0.0,0.0,0.0,0.0,0.0,0.0,0.0,0.0,0.0,0.0,0.0,0.0,0.0,0.0,0.0,0.0,0.0,0.0,0.0,0.0,0.0,0.0,0.0,0.0,0.0,0.0,0.0,0.0,0.0,0.0,0.0,0.0,0.0,0.0,0.0,0.0,0.0,0.0,0.0,0.0,0.0,0.0,0.0,0.0,0.0,0.0,0.0,0.0,0.0,0.0,0.0,0.0,0.0,0.0,0.0,0.0,0.0,0.0,0.0,0.0,0.0,0.0,0.0,0.0,0.0,0.0,0.0,0.0,0.0,0.0,0.0,0.0,0.0,0.0,0.0,0.0,0.0,0.0,0.0,0.0,0.0,0.0,0.0,0.0,0.0,0.0,0.0,0.0,0.0,0.0,0.0,0.0,6.7461,7.5351,8.9336,9.4961,9.789,9.8359,9.2539,8.5156,7.6445,6.9726,0.0,0.0,0.0,0.0,0.0,0.0,0.0,0.0,0.0,0.0,0.0,0.0,0.0,0.0,0.0,0.0,0.0,0.0,0.0,0.0,0.0,0.0,0.0,0.0,0.0,0.0,0.0,0.0,0.0,0.0,0.0,0.0,0.0,0.0,0.0,0.0,0.0,0.0,0.0,0.0,0.0,0.0,0.0,0.0,0.0,0.0,0.0,0.0,0.0,0.0,0.0,0.0,0.0,0.0,0.0,0.0,0.0,0.0,0.0,0.0,0.0,0.0,0.0,0.0,0.0,0.0,0.0,0.0,0.0,0.0,0.0,0.0,0.0,0.0,0.0,0.0,0.0,0.0,0.0,0.0,0.0,0.0,0.0,0.0,0.0,0.0,0.0,0.0,0.0,0.0,0.0,0.0,0.0,0.0,0.0,0.0,0.0,0.0,0.0,0.0,0.0,0.0,7.5937,8.2226,9.1601,9.5508,9.7695,9.8359,9.2304,8.4726,7.5859,6.7617,0.0,0.0,0.0,0.0,0.0,0.0,0.0,0.0,0.0,0.0,0.0,0.0,0.0,0.0,0.0,0.0,0.0,0.0,0.0,0.0,0.0,0.0,0.0,0.0,0.0,0.0,0.0,0.0,0.0,0.0,0.0,0.0,0.0,0.0,0.0,0.0,0.0,0.0,0.0,0.0,0.0,0.0,0.0,0.0,0.0,0.0,0.0,0.0,0.0,0.0,0.0,0.0,0.0,0.0,0.0,0.0,0.0,0.0,0.0,0.0,0.0,0.0,0.0,0.0,0.0,0.0,0.0,0.0,0.0,0.0,0.0,0.0,0.0,0.0,0.0,0.0,0.0,0.0,0.0,0.0,0.0,0.0,0.0,0.0,0.0,0.0,0.0,0.0,0.0,0.0,0.0,0.0,0.0,0.0,0.0,0.0,0.0,0.0,0.0,0.0,0.0,0.0,7.918,8.8203,9.2187,9.5,9.6601,9.6679,8.8906,8.1015,7.3945,6.4726,0.0,0.0,0.0,0.0,0.0,0.0,0.0,0.0,0.0,0.0,0.0,0.0,0.0,0.0,0.0,0.0,0.0,0.0,0.0,0.0,0.0,0.0,0.0,0.0,0.0,0.0,0.0,0.0,0.0,0.0,0.0,0.0,0.0,0.0,0.0,0.0,0.0,0.0,0.0,0.0,0.0,0.0,0.0,0.0,0.0,0.0,0.0,0.0,0.0,0.0,0.0,0.0,0.0,0.0,0.0,0.0,0.0,0.0,0.0,0.0,0.0,0.0,0.0,0.0,0.0,0.0,0.0,0.0,0.0,0.0,0.0,0.0,0.0,0.0,0.0,0.0,0.0,0.0,0.0,0.0,0.0,0.0,0.0,0.0,0.0,0.0,0.0,0.0,0.0,0.0,0.0,0.0,0.0,0.0,0.0,0.0,0.0,0.0,0.0,0.0,0.0,0.0,7.7422,8.5586,9.1172,9.414,9.5469,9.4922,8.9453,8.1914,7.2305,0.0,0.0,0.0,0.0,0.0,0.0,0.0,0.0,0.0,0.0,0.0,0.0,0.0,0.0,0.0,0.0,0.0,0.0,0.0,0.0,0.0,0.0,0.0,0.0,0.0,0.0,0.0,0.0,0.0,0.0,0.0,0.0,0.0,0.0,0.0,0.0,0.0,0.0,0.0,0.0,0.0,0.0,0.0,0.0,0.0,0.0,0.0,0.0,0.0,0.0,0.0,0.0,0.0,0.0,0.0,0.0,0.0,0.0,0.0,0.0,0.0,0.0,0.0,0.0,0.0,0.0,0.0,0.0,0.0,0.0,0.0,0.0,0.0,0.0,0.0,0.0,0.0,0.0,0.0,0.0,0.0,0.0,0.0,0.0,0.0,0.0,0.0,0.0,0.0,0.0,0.0,0.0,0.0,0.0,0.0,0.0,0.0,0.0,0.0,0.0,0.0,0.0,6.8125,7.7226,8.5078,9.0312,9.2969,9.4023,9.3164,8.789,8.0547,7.0937,0.0,0.0,0.0,0.0,0.0,0.0,0.0,0.0,0.0,0.0,0.0,0.0,0.0,0.0,0.0,0.0,0.0,0.0,0.0,0.0,0.0,0.0,0.0,0.0,0.0,0.0,0.0,0.0,0.0,0.0,0.0,0.0,0.0,0.0,0.0,0.0,0.0,0.0,0.0,0.0,0.0,0.0,0.0,0.0,0.0,0.0,0.0,0.0,0.0,0.0,0.0,0.0,0.0,0.0,0.0,0.0,0.0,0.0,0.0,0.0,0.0,0.0,0.0,0.0,0.0,0.0,0.0,0.0,0.0,0.0,0.0,0.0,0.0,0.0,0.0,0.0,0.0,0.0,0.0,0.0,0.0,0.0,0.0,0.0,0.0,0.0,0.0,0.0,0.0,0.0,0.0,0.0,0.0,0.0,0.0,0.0,0.0,0.0,0.0,0.0,0.0,0.0,6.7773,7.9492,8.8125,8.9804,9.1523,9.2226,9.1328,8.3437,7.5937,0.0,0.0,0.0,0.0,0.0,0.0,0.0,0.0,0.0,0.0,0.0,0.0,0.0,0.0,0.0,0.0,0.0,0.0,0.0,0.0,0.0,0.0,0.0,0.0,0.0,0.0,0.0,0.0,0.0,0.0,0.0,0.0,0.0,0.0,0.0,0.0,0.0,0.0,0.0,0.0,0.0,0.0,0.0,0.0,0.0,0.0,0.0,0.0,0.0,0.0,0.0,0.0,0.0,0.0,0.0,0.0,0.0,0.0,0.0,0.0,0.0,0.0,0.0,0.0,0.0,0.0,0.0,0.0,0.0,0.0,0.0,0.0,0.0,0.0,0.0,0.0,0.0,0.0,0.0,0.0,0.0,0.0,0.0,0.0,0.0,0.0,0.0,0.0,0.0,0.0,0.0,0.0,0.0,0.0,0.0,0.0,0.0,0.0,0.0,0.0,0.0,0.0,0.0,6.8672,7.9336,8.7226,8.8906,9.0078,9.0195,8.875,8.4062,7.7305,6.8242,0.0,0.0,0.0,0.0,0.0,0.0,0.0,0.0,0.0,0.0,0.0,0.0,0.0,0.0,0.0,0.0,0.0,0.0,0.0,0.0,0.0,0.0,0.0,0.0,0.0,0.0,0.0,0.0,0.0,0.0,0.0,0.0,0.0,0.0,0.0,0.0,0.0,0.0,0.0,0.0,0.0,0.0,0.0,0.0,0.0,0.0,0.0,0.0,0.0,0.0,0.0,0.0,0.0,0.0,0.0,0.0,0.0,0.0,0.0,0.0,0.0,0.0,0.0,0.0,0.0,0.0,0.0,0.0,0.0,0.0,0.0,0.0,0.0,0.0,0.0,0.0,0.0,0.0,0.0,0.0,0.0,0.0,0.0,0.0,0.0,0.0,0.0,0.0,0.0,0.0,0.0,0.0,0.0,0.0,0.0,0.0,0.0,0.0,0.0,0.0,0.0,0.0,6.8515,7.875,8.6328,8.8047,8.8984,8.8789,8.7109,8.3789,7.7969,6.8984,0.0,0.0,0.0,0.0,0.0,0.0,0.0,0.0,0.0,0.0,0.0,0.0,0.0,0.0,0.0,0.0,0.0,0.0,0.0,0.0,0.0,0.0,0.0,0.0,0.0,0.0,0.0,0.0,0.0,0.0,0.0,0.0,0.0,0.0,0.0,0.0,0.0,0.0,0.0,0.0,0.0,0.0,0.0,0.0,0.0,0.0,0.0,0.0,0.0,0.0,0.0,0.0,0.0,0.0,0.0,0.0,0.0,0.0,0.0,0.0,0.0,0.0,0.0,0.0,0.0,0.0,0.0,0.0,0.0,0.0,0.0,0.0,0.0,0.0,0.0,0.0,0.0,0.0,0.0,0.0,0.0,0.0,0.0,0.0,0.0,0.0,0.0,0.0,0.0,0.0,0.0,0.0,0.0,0.0,0.0,0.0,0.0,0.0,0.0,0.0,0.0,0.0,6.7969,7.8086,8.5586,8.7304,8.8164,8.789,8.6211,8.2969,7.8047,7.1133,0.0,0.0,0.0,0.0,0.0,0.0,0.0,0.0,0.0,0.0,0.0,0.0,0.0,0.0,0.0,0.0,0.0,0.0,0.0,0.0,0.0,0.0,0.0,0.0,0.0,0.0,0.0,0.0,0.0,0.0,0.0,0.0,0.0,0.0,0.0,0.0,0.0,0.0,0.0,0.0,0.0,0.0,0.0,0.0,0.0,0.0,0.0,0.0,0.0,0.0,0.0,0.0,0.0,0.0,0.0,0.0,0.0,0.0,0.0,0.0,5.8437,5.5039,0.0,0.0,0.0,0.0,0.0,0.0,0.0,0.0,0.0,0.0,0.0,0.0,0.0,0.0,0.0,0.0,0.0,0.0,0.0,0.0,0.0,0.0,0.0,0.0,0.0,0.0,0.0,0.0,0.0,0.0,0.0,0.0,0.0,0.0,0.0,0.0,0.0,0.0,0.0,0.0,6.9648,7.8789,8.5586,8.7304,8.7656,8.707,8.5312,8.2617,7.8047,7.1133,6.5351,0.0,0.0,0.0,0.0,0.0,0.0,0.0,0.0,0.0,0.0,0.0,0.0,0.0,0.0,0.0,0.0,0.0,0.0,0.0,0.0,0.0,0.0,0.0,0.0,0.0,0.0,0.0,0.0,0.0,0.0,0.0,0.0,0.0,0.0,0.0,0.0,0.0,0.0,0.0,0.0,0.0,0.0,0.0,0.0,0.0,0.0,0.0,0.0,0.0,0.0,0.0,0.0,0.0,0.0,0.0,0.0,0.0,0.0,0.0,6.4336,6.1133,0.0,0.0,0.0,0.0,0.0,0.0,0.0,0.0,0.0,0.0,0.0,0.0,0.0,0.0,0.0,0.0,0.0,0.0,0.0,0.0,0.0,0.0,0.0,0.0,0.0,0.0,0.0,0.0,0.0,0.0,0.0,0.0,0.0,0.0,0.0,0.0,0.0,0.0,0.0,0.0,6.957,7.875,8.539,8.6719,8.7265,8.6797,8.5039,8.3281,7.9844,7.418,6.8594,0.0,0.0,0.0,0.0,0.0,0.0,0.0,0.0,0.0,0.0,0.0,0.0,0.0,0.0,0.0,0.0,0.0,0.0,0.0,0.0,0.0,0.0,0.0,0.0,0.0,0.0,0.0,0.0,0.0,0.0,0.0,0.0,0.0,0.0,0.0,0.0,0.0,0.0,0.0,0.0,0.0,0.0,0.0,0.0,0.0,0.0,0.0,0.0,0.0,0.0,0.0,0.0,0.0,7.2031,7.3828,7.6172,7.6484,7.7109,7.7617,7.1875,6.9375,6.8984,6.4765,0.0,0.0,0.0,0.0,0.0,0.0,0.0,0.0,0.0,0.0,0.0,0.0,0.0,0.0,0.0,0.0,0.0,0.0,0.0,0.0,0.0,0.0,0.0,0.0,6.6601,6.7578,6.1133,0.0,0.0,0.0,0.0,0.0,0.0,0.0,0.0,0.0,0.0,0.0,6.9805,7.8867,8.5273,8.6328,8.707,8.6797,8.5039,8.4101,8.1836,7.7695,7.2305,6.7695,0.0,0.0,0.0,0.0,0.0,0.0,0.0,0.0,0.0,0.0,0.0,0.0,0.0,0.0,0.0,0.0,0.0,0.0,0.0,0.0,0.0,0.0,0.0,0.0,0.0,0.0,0.0,0.0,0.0,0.0,0.0,0.0,5.5976,5.707,0.0,0.0,0.0,0.0,0.0,0.0,0.0,0.0,0.0,0.0,0.0,0.0,0.0,6.8242,7.1562,7.5508,7.7383,7.7265,8.2578,8.4179,8.2461,8.3984,8.5156,8.5937,8.5,0.0,7.3476,6.9883,0.0,0.0,0.0,0.0,0.0,0.0,0.0,0.0,0.0,0.0,0.0,0.0,0.0,0.0,0.0,0.0,0.0,0.0,0.0,0.0,0.0,0.0,7.0547,7.1523,7.2773,7.3476,0.0,6.6328,6.0234,5.7578,5.5742,0.0,0.0,0.0,0.0,0.0,0.0,0.0,7.3164,8.0351,8.5508,8.7148,8.7422,8.6797,8.5039,8.4101,8.2109,7.8555,7.5469,7.1875,6.7695,6.3359,0.0,0.0,0.0,0.0,0.0,0.0,0.0,0.0,0.0,0.0,0.0,0.0,0.0,0.0,0.0,0.0,0.0,0.0,0.0,0.0,0.0,0.0,0.0,0.0,0.0,0.0,0.0,0.0,0.0,5.6523,5.9609,6.0,6.0234,5.8867,0.0,0.0,0.0,0.0,0.0,0.0,0.0,0.0,0.0,7.1289,7.3984,7.6836,7.9805,8.2187,8.4375,8.6406,8.9101,9.0273,9.0156,9.0898,9.1484,9.1836,9.1836,8.9101,8.4219,7.7812,7.2969,6.9101,0.0,0.0,0.0,0.0,6.4375,6.5273,6.7734,6.8242,6.7656,6.6484,0.0,0.0,0.0,0.0,0.0,0.0,0.0,6.4023,0.0,0.0,7.3945,7.5781,7.7226,7.8047,7.7578,7.414,6.9648,0.0,6.2265,5.9492,5.4453,0.0,0.0,0.0,0.0,6.957,7.4687,8.0937,8.539,8.664,8.6758,8.625,8.5,8.4101,8.2539,8.0078,7.75,7.4765,7.1914,6.6719,6.2148,0.0,0.0,0.0,0.0,0.0,0.0,0.0,0.0,0.0,0.0,0.0,0.0,0.0,0.0,0.0,0.0,0.0,0.0,0.0,0.0,0.0,0.0,0.0,0.0,0.0,0.0,0.0,0.0,5.9765,6.2851,6.2422,6.4687,6.3984,0.0,0.0,0.0,0.0,0.0,0.0,6.9336,7.3594,7.6836,7.8828,8.1758,8.457,8.7187,8.8086,9.0234,9.3594,9.3828,9.457,9.5859,9.5859,9.5859,9.5859,9.5859,9.5,9.3008,8.5195,8.0,7.6523,7.2656,7.0469,6.9805,7.1914,7.2422,7.25,7.5742,7.6328,7.5234,7.3125,7.125,6.8945,6.4258,0.0,0.0,0.0,0.0,6.8359,7.1797,7.4297,7.6562,7.918,8.0937,8.1758,8.0898,7.9883,7.7344,0.0,6.8945,6.6055,6.0234,0.0,0.0,6.1172,6.664,7.2305,7.664,8.1719,8.5312,8.6406,8.6328,8.5859,8.4961,8.4101,8.2969,8.1445,7.9336,7.7305,7.5351,7.0312,6.6015,6.2773,0.0,0.0,0.0,0.0,0.0,0.0,0.0,0.0,0.0,0.0,0.0,0.0,0.0,0.0,0.0,0.0,0.0,0.0,0.0,0.0,0.0,0.0,0.0,0.0,0.0,0.0,0.0,0.0,0.0,6.4375,6.8555,0.0,0.0,0.0,0.0,6.7539,7.1523,7.4687,7.6562,8.0742,8.4258,8.6836,8.8633,9.0781,9.3437,9.4297,9.5273,9.6328,9.707,9.75,9.7578,9.7578,9.7578,9.7578,9.7578,9.7109,9.5898,9.0469,8.6211,8.289,8.0195,7.8125,7.6797,7.7773,7.8555,7.9219,7.9414,7.8984,7.8555,7.9961,7.7656,7.4062,7.293,7.0859,0.0,0.0,7.2187,7.3711,7.7187,7.8789,8.0117,8.2734,8.4023,8.4453,8.3594,8.207,7.9805,0.0,7.4765,7.3242,7.039,0.0,7.0078,7.0078,7.25,7.5898,8.0195,8.3164,8.5547,8.7265,8.6679,8.5859,8.4961,8.4101,8.3203,8.2304,8.1328,7.9687,7.7187,7.4375,7.0547,6.5508,6.1172,0.0,0.0,0.0,0.0,0.0,0.0,0.0,0.0,0.0,0.0,0.0,0.0,0.0,0.0,0.0,0.0,0.0,0.0,0.0,0.0,0.0,0.0,0.0,0.0,0.0,0.0,0.0,0.0,7.1719,7.6328,0.0,7.3047,7.3672,7.4726,7.5547,7.9101,8.2461,8.5273,8.8476,9.1406,9.3984,9.5195,9.6797,9.8828,9.8594,9.8906,9.9765,9.9492,9.9687,10.0195,9.9062,9.8828,9.9336,9.8789,9.8047,9.7187,9.5859,9.2969,8.914,8.6523,8.5117,8.4648,8.4961,8.4922,8.4804,8.5312,8.4961,8.4101,8.3047,8.0156,7.7031,7.6758,7.6015,7.5625,7.7305,7.8437,7.9648,8.1992,8.2812,8.3281,8.4219,8.4687,8.4804,8.4492,8.3945,8.3164,8.1914,7.875,7.5273,7.207,7.293,7.3672,7.2539,7.5508,7.9023,8.2265,8.4453,8.6172,8.7383,8.6211,8.5234,8.4922,8.3594,8.2617,8.2304,8.0976,7.9531,7.8086,7.4453,7.1055,6.8086,6.4375,5.9843,0.0,0.0,0.0,0.0,0.0,0.0,0.0,0.0,0.0,0.0,0.0,0.0,0.0,0.0,0.0,0.0,0.0,0.0,0.0,0.0,0.0,0.0,0.0,0.0,0.0,6.9805,7.5586,7.6992,8.2265,8.4062,7.9765,8.0937,8.2265,8.3125,8.6133,8.9062,9.1601,9.4219,9.6406,9.8086,9.8984,10.0,10.1211,10.0586,10.0586,10.1211,10.0586,10.0781,10.1601,10.0117,9.9922,10.0703,9.9492,9.8672,9.8164,9.875,9.7148,9.4101,9.2109,9.0976,9.0508,9.0781,9.0351,8.9648,8.9609,8.8828,8.7539,8.5234,8.2929,8.1054,8.0742,8.0664,8.0898,8.1992,8.2734,8.3437,8.4609,8.5117,8.5351,8.5351,8.5547,8.5703,8.539,8.5351,8.5234,8.4961,8.1914,7.8633,7.6328,7.7344,7.789,7.6172,7.9062,8.1953,8.3398,8.5117,8.6523,8.7422,8.6211,8.5234,8.4922,8.2773,8.1562,8.1836,7.9414,7.7617,7.6797,7.2851,6.9765,6.7734,6.4883,6.0586,5.4881,0.0,0.0,0.0,0.0,0.0,0.0,0.0,0.0,0.0,0.0,0.0,0.0,0.0,0.0,0.0,0.0,0.0,0.0,0.0,0.0,0.0,0.0,0.0,6.7109,7.3906,7.914,8.0039,8.6133,8.8633,8.4453,8.707,8.9375,9.0234,9.2656,9.4492,9.5351,9.7695,9.9062,9.914,9.9961,10.039,10.039,10.039,10.039,10.039,10.039,10.0898,10.1719,10.0781,10.0898,10.1601,9.9844,9.9062,9.8984,9.9023,9.8515,9.7617,9.6875,9.5547,9.4101,9.4961,9.4726,9.3711,9.1992,9.0234,8.8515,8.6875,8.6289,8.6133,8.5273,8.5,8.5,8.5,8.5,8.4961,8.4961,8.5625,8.625,8.625,8.6875,8.7265,8.6406,8.625,8.5976,8.5156,8.4297,8.3672,8.3633,8.3633,8.3086,8.1367,8.3281,0.0,8.3789,8.5195,8.6523,8.7344,8.6601,8.5742,8.4883,8.164,8.0039,8.0859,7.6953,7.4258,7.3359,7.0039,6.6992,6.4336,6.2539,5.9961,5.6601,0.0,0.0,0.0,0.0,0.0,0.0,0.0,0.0,0.0,0.0,0.0,0.0,0.0,0.0,0.0,0.0,0.0,0.0,0.0,0.0,0.0,6.8711,7.3359,7.4258,8.1015,8.6914,8.9687,9.3867,9.582,9.3984,9.5234,9.6289,9.6523,9.7773,9.8906,9.9804,9.9922,10.0781,10.2695,10.2383,10.25,10.3086,10.3789,10.3789,10.3086,10.3789,10.4492,10.5195,10.3086,10.2695,10.3398,10.1601,10.0195,9.9062,9.9687,9.9062,9.7734,9.8164,9.7617,9.6679,9.6914,9.6094,9.4687,9.3554,9.2031,9.039,8.9297,8.8515,8.7969,8.7734,8.7265,8.6914,8.75,8.7226,8.6797,8.6797,8.6953,8.7148,8.7148,8.7344,8.7422,8.7187,8.7148,8.707,8.6836,8.6094,8.5273,8.4648,8.4531,8.4375,8.3906,8.4961,8.5742,8.5508,8.6445,8.6758,8.5703,8.4258,8.3281,8.3047,8.0429,7.8945,7.918,7.6875,7.4883,7.3359,7.0625,6.7617,6.4375,6.1406,5.8789,0.0,0.0,0.0,0.0,0.0,0.0,0.0,0.0,0.0,0.0,0.0,0.0,0.0,0.0,0.0,0.0,0.0,0.0,0.0,0.0,0.0,0.0,7.625,8.1836,8.4844,8.8515,9.2148,9.5625,9.8125,9.9492,9.9336,9.9804,10.0195,10.0586,10.1094,10.1484,10.1601,10.2187,10.3008,10.4219,10.4414,10.4609,10.4687,10.5195,10.5117,10.4219,10.5117,10.5898,10.6601,10.4804,10.4414,10.5117,10.2695,10.1015,10.0117,9.9844,9.8945,0.0,0.0,0.0,0.0,0.0,9.6875,9.5664,9.5156,9.4101,9.2734,9.1484,9.0976,9.0664,8.957,8.8906,8.8554,8.8672,8.8125,8.75,8.75,8.75,8.75,8.75,8.75,8.75,8.75,8.75,8.75,8.75,8.7109,0.0,8.6094,8.5703,8.5312,8.4961,8.5937,8.6484,8.5742,8.6758,8.7109,8.6094,8.5078,8.4179,8.3437,8.0703,0.0,0.0,0.0,7.2617,7.0195,6.7617,0.0,0.0,0.0,5.9922,5.9297,0.0,0.0,0.0,5.523,5.4716,0.0,0.0,0.0,0.0,0.0,0.0,0.0,0.0,0.0,0.0,0.0,0.0,0.0,0.0,0.0,0.0,8.3945,9.0429,9.6406,9.6054,9.625,9.9101,10.0312,10.1211,10.1797,10.1992,10.2383,10.3086,10.3203,10.289,10.2109,10.4219,0.0,0.0,0.0,10.6406,10.5586,10.5703,10.5312,10.4492,10.539,10.6211,10.6797,10.6015,10.5898,10.6211,10.3086,10.1601,10.1211,9.9648,9.8476,9.7695,9.7695,9.7695,9.7695,9.7695,9.7187,9.6484,9.6406,0.0,0.0,9.3008,9.289,9.3047,9.0703,8.9922,8.9687,8.8906,8.8203,8.7617,8.7539,8.75,8.75,8.75,8.75,8.75,8.75,8.75,8.75,8.75,8.75,8.75,8.75,8.6875,8.6094,8.5429,8.6562,8.6953,8.5508,8.6601,8.7422,8.7226,0.0,0.0,8.4765,8.1601,7.9648,7.957,7.418,6.9648,6.6601,6.3945,6.2578,6.2578,6.2383,6.2656,6.3437,6.3359,6.3281,6.3164,5.75,5.652,0.0,0.0,0.0,0.0,0.0,0.0,0.0,0.0,0.0,0.0,0.0,0.0,0.0,0.0,0.0,8.3437,8.9648,9.5586,10.0898,10.2617,10.3008,10.2187,10.3515,10.4297,10.3711,10.4297,10.4804,10.5,10.5,10.4883,10.4804,10.5195,10.5703,10.6211,10.6484,10.6601,10.6484,10.7187,10.7109,10.6211,10.7109,0.0,10.7695,10.6914,10.5781,10.4609,10.3203,10.1484,9.9492,9.914,9.8476,9.7695,9.7695,9.7695,9.7695,9.7695,9.7187,9.6406,9.5703,9.4883,9.3867,9.2109,9.1172,9.0664,9.0156,8.9492,0.0,8.875,8.8594,8.832,8.7656,8.75,8.75,8.75,8.75,8.75,8.75,8.75,8.75,8.75,8.75,8.75,8.75,8.7344,8.7422,8.789,8.7695,8.7617,8.7929,8.7695,8.6953,8.5547,8.4765,8.3945,8.289,8.0898,7.9414,7.8789,7.5,7.25,7.1836,6.9297,6.789,6.789,6.6562,6.5976,6.6133,6.543,6.5117,6.5039,6.1758,6.0586,0.0,0.0,0.0,0.0,0.0,0.0,0.0,0.0,0.0,0.0,0.0,6.8945,7.1523,0.0,8.4922,9.0976,9.5586,9.9765,10.3711,10.5703,10.6093,10.4414,10.5312,10.6093,10.6093,10.6484,10.6914,10.7383,10.7383,10.7187,10.6797,10.7187,10.7617,10.8008,10.8398,10.8398,10.8008,10.8398,10.8203,10.7383,10.7812,10.8008,10.8008,10.75,10.6406,10.4804,10.3515,10.1719,9.957,9.8711,9.8086,9.7695,9.7695,9.7461,9.7148,9.7539,9.7187,9.6445,9.6015,9.5586,9.4922,9.3164,9.2617,9.2344,9.1054,9.0351,8.9804,8.8945,8.8398,8.8008,8.7617,8.75,8.75,8.75,8.75,8.75,8.75,8.75,8.75,8.75,8.75,8.75,8.75,8.75,8.7656,8.8047,8.7773,8.7656,8.8047,8.8086,8.7773,8.6875,8.6406,8.5625,8.4375,8.1836,7.9805,7.8594,7.6055,7.4414,7.3984,7.1445,6.9844,6.9453,6.8633,6.8008,6.7539,6.7109,6.668,6.6211,6.4453,6.3437,0.0,0.0,0.0,0.0,0.0,0.0,0.0,6.1172,6.3945,6.6719,7.1953,7.7383,8.1719,8.6836,9.2226,9.7578,10.0703,10.3086,10.539,10.7304,10.789,10.6211,10.6719,10.75,10.8203,10.8086,10.8281,10.8984,10.8984,10.8711,10.8008,10.8711,10.8984,10.8984,10.9687,10.9804,10.9101,10.8984,10.8711,10.8008,10.8008,10.8008,10.8008,10.7695,10.6719,10.5117,10.3008,10.1289,9.9922,9.8359,9.7695,9.7695,9.7695,9.7226,9.6601,9.7383,9.7304,9.6679,9.6367,9.625,9.5976,9.4219,9.4101,9.4258,9.1992,9.1289,9.0937,8.9179,8.8242,8.7695,8.7539,8.75,8.75,8.75,8.75,8.75,8.75,8.75,8.75,8.75,8.75,8.7539,8.7695,8.7734,8.7734,8.7734,8.7617,8.7578,8.7695,8.8281,8.8711,8.8711,8.8711,8.7969,8.6094,8.3203,8.0859,7.9336,7.7773,7.6562,7.5859,7.3359,7.164,7.1015,7.0508,6.9883,6.918,6.8867,6.832,6.7617,6.6562,6.5469,6.1484,5.8906,5.7539,6.0312,6.0469,6.2148,0.0,7.2734,7.3945,7.7305,8.2226,8.6328,8.7617,9.2695,9.7656,10.0703,10.3398,10.539,10.6406,10.8711,10.9687,10.789,10.8515,10.8984,10.9101,10.8515,10.8008,10.8086,10.8086,10.8086,10.8008,10.8086,10.8086,10.8086,10.8203,10.8203,10.8086,10.8086,10.8086,10.8008,10.8008,10.8008,10.789,10.6484,10.5312,10.4219,10.0898,9.9336,9.9062,9.8086,9.7695,9.7695,9.7695,9.7226,9.6601,9.7383,9.7656,9.7344,9.5859,9.5351,9.5078,9.332,9.2812,9.2695,9.1601,9.1289,9.0937,8.9179,8.8633,8.8398,8.7695,8.75,8.75,8.75,8.75,8.75,8.75,8.75,8.75,8.75,8.75,8.7734,8.8437,8.8554,8.8554,8.8554,8.7969,8.7773,8.8476,8.8633,8.8711,8.8711,8.8711,8.7695,8.5234,8.3984,8.289,8.1953,8.0976,8.039,8.0273,7.7812,7.6445,7.6328,7.4062,7.2812,7.2734,7.1172,7.0351,7.0234,6.8633,6.6601,6.7422,6.5195,6.3945,6.6328,6.8555,7.1484,7.6445,7.9922,8.2656,8.4531,8.9883,9.4453,9.5312,9.875,10.2187,10.4219,10.5508,10.6719,10.8008,10.8711,10.8593,10.7383,10.7187,10.7695,10.9218,10.8984,10.8789,10.8789,10.8789,10.8789,10.8789,10.8281,10.8203,10.8711,10.8789,10.8984,10.9492,10.8984,10.8984,10.9492,10.8515,10.8008,10.8008,10.7304,10.5703,10.3281,10.0312,9.8711,9.8203,9.7851,9.7695,9.7695,9.7695,9.75,9.7226,9.7578,9.7383,9.6914,9.6211,9.5976,9.5664,9.3906,9.3359,9.3086,9.1719,9.0937,9.0273,8.9062,8.8359,8.7929,8.7578,8.75,8.7617,8.8086,8.8203,8.8359,8.8867,8.8945,8.8945,8.8945,8.8945,8.9062,8.9414,8.9453,8.9453,8.9453,8.875,8.832,8.8672,8.8711,8.8711,8.8711,8.8711,8.7656,8.5117,8.4101,8.3242,8.2344,8.1484,8.1015,8.1015,7.9492,7.8203,7.7226,7.6133,7.4805,7.3281,7.2578,7.168,7.0664,6.9961,6.8555,7.0195,6.9453,6.9844,7.2265,7.6094,8.0,8.2656,8.6758,9.0351,9.164,9.6054,9.9961,10.0898,10.2812,10.4687,10.6406,10.6719,10.7187,10.8711,10.8203,10.7109,10.5781,10.4883,10.5117,10.6719,10.7695,10.8281,10.8593,10.8984,10.9297,10.9297,10.8711,10.8593,10.9297,10.9101,10.9218,10.9883,10.9492,10.9492,10.9883,10.8789,10.8203,10.8008,10.75,10.5586,10.2383,10.0312,9.8984,9.8398,9.8164,9.8047,9.8047,9.8047,9.789,9.7695,9.7695,9.7344,9.6797,9.6562,9.6484,9.625,9.4765,9.4258,9.3984,9.2461,9.1406,9.0547,8.9648,8.8828,8.8203,8.8203,8.8008,8.8047,8.8867,8.8867,8.8984,9.0117,9.0351,9.0429,9.0664,9.0703,9.0703,9.0703,9.0937,9.1094,9.1094,9.0547,8.9883,8.914,8.9062,8.9062,8.9062,8.9062,8.8125,8.582,8.4804,8.3828,8.2734,8.1836,8.1367,8.1367,8.0508,7.9492,7.8281,7.7578,7.6289,7.4375,7.3906,7.289,7.1406,7.1172,7.0156,6.7695,6.9414,7.289,7.7187,8.1484,8.5976,9.1054,9.4297,9.6914,9.9414,10.0781,10.1797,10.2695,10.3594,10.4687,10.6406,10.6719,10.6992,10.789,10.7304,10.5781,10.3281,10.2187,10.1406,10.0586,10.3594,10.5898,10.6719,10.8281,10.9297,10.9297,10.9297,10.9297,10.9297,10.8515,10.8086,10.8086,10.8906,10.8906,10.8086,10.8906,10.8789,10.789,10.6289,10.4101,10.1601,10.0703,10.0195,10.0195,9.9297,9.8945,9.8945,9.8945,9.8437,9.7695,9.7695,9.7695,9.7539,9.6758,9.6484,9.6367,9.5469,9.5156,9.5,9.4101,9.3203,9.2344,9.1484,9.0586,8.9922,8.9922,8.9297,8.8867,8.9765,8.9297,8.9179,9.0898,9.125,9.1523,9.2344,9.2539,9.2539,9.2539,9.3203,9.3789,9.3789,9.375,9.2812,9.0273,8.9961,8.9961,8.9961,8.9961,8.9258,8.7578,8.6601,8.539,8.3672,8.2734,8.2265,8.2265,8.1406,8.0937,8.0898,7.8476,7.7148,7.707,7.539,7.4101,7.3203,7.2344,7.1015,7.2344,7.5781,8.0,8.4922,8.9375,9.3633,9.7656,10.0586,10.2187,10.1289,10.0898,10.0312,9.8906,9.8906,9.9648,10.1289,10.3984,10.6211,10.6992,10.6914,10.5312,10.1601,10.0898,9.9961,9.7969,10.039,10.3086,10.5703,10.6406,10.7304,10.8398,10.8398,10.8398,10.8398,10.8203,10.8281,10.8906,10.8593,10.8593,10.8906,10.8008,10.7695,10.789,10.5703,10.3789,10.2383,10.1484,10.0195,9.8594,9.8867,9.8672,9.8125,9.8125,9.7969,9.7695,9.7695,9.7695,9.7656,9.7383,9.7304,9.7148,9.6328,9.6054,9.5781,9.4336,9.3711,9.3164,9.1719,9.1094,9.0742,9.0156,8.9765,8.9765,9.0664,9.1094,9.1445,9.2031,9.2617,9.3125,9.3398,9.3008,9.2969,9.414,9.4101,9.3711,9.3125,9.3047,9.25,9.1054,9.0859,9.0625,9.0078,9.0,8.9336,8.7656,8.6172,8.4844,8.3672,8.2773,8.2304,8.2304,8.2031,8.1601,8.1015,7.9609,7.832,7.7187,7.5469,7.4453,7.414,7.3281,7.2226,7.7578,8.1992,8.6679,9.1523,9.5781,9.9531,10.2383,10.4101,10.4297,10.1719,9.9453,9.7226,9.4648,9.3437,9.3672,9.6289,9.9336,10.2187,10.4492,10.4297,10.289,10.0195,9.9297,9.8164,9.6211,9.7812,10.039,10.3789,10.5508,10.6719,10.75,10.8086,10.8515,10.8515,10.8203,10.8281,10.8789,10.8906,10.9218,10.9687,10.8008,10.7304,10.75,10.5195,10.3594,10.2383,10.1484,10.0,9.8242,9.9101,9.8945,9.8164,9.8164,9.7969,9.7695,9.7695,9.7695,9.7695,9.7695,9.7695,9.7617,9.7109,9.6719,9.6289,9.5156,9.4375,9.3672,9.2539,9.1992,9.164,9.1054,9.0703,9.0664,9.1562,9.1953,9.2304,9.2929,9.3515,9.3984,9.4297,9.414,9.414,9.4648,9.4531,9.4297,9.4023,9.3711,9.289,9.1054,9.1094,9.1094,9.0508,9.0469,8.9883,8.8515,8.707,8.5625,8.414,8.3242,8.2617,8.2304,8.2304,8.2031,8.1484,8.0625,7.9492,7.8086,7.668,7.5508,7.4609,7.4336,7.3437,8.3242,8.7929,9.2851,9.7109,10.0586,10.3515,10.5117,10.4687,10.3203,10.039,9.6367,9.2461,8.9726,8.7422,8.7344,9.1562,9.3398,9.6054,10.1015,10.039,9.9414,9.9219,9.7851,9.6523,9.5547,9.6328,9.8203,10.1406,10.539,10.75,10.6914,10.8398,10.9297,10.9297,10.8515,10.8086,10.8086,10.9687,11.0508,11.039,10.8711,10.75,10.6719,10.4883,10.3203,10.1601,10.0703,9.9844,9.9062,10.0,9.9844,9.9062,9.9023,9.8476,9.7773,9.7734,9.7695,9.7695,9.7695,9.7695,9.7695,9.7695,9.7187,9.6562,9.6523,9.5351,9.4062,9.3945,9.3359,9.2695,9.2617,9.1992,9.1562,9.2383,9.1992,9.1875,9.3476,9.3867,9.414,9.4961,9.5859,9.5976,9.4336,9.4726,9.5547,9.6367,9.5703,9.3945,9.0625,9.0898,9.1367,9.1367,9.1289,9.0898,9.0078,8.9101,8.7539,8.5078,8.4062,8.3203,8.2344,8.2304,8.2265,8.2226,8.1406,8.0547,7.9648,7.8828,7.7148,7.4687,7.5469,7.4492,9.0781,9.5547,9.9844,10.3515,10.4609,10.5,10.539,10.3281,9.9844,9.4648,8.914,8.3867,7.9375,8.0625,8.3515,8.7226,9.4453,10.0508,10.3203,10.4804,10.4804,10.2187,10.2109,10.1406,9.9219,10.1015,10.2109,10.1601,10.3203,10.5508,10.8515,10.9101,10.9297,10.9297,10.9101,10.8984,10.8984,10.9414,10.9297,10.8593,10.7617,10.7304,10.7617,10.4609,10.3008,10.25,10.1601,10.039,9.9101,10.0586,10.0781,9.9883,9.9258,9.8867,9.8594,9.7929,9.7695,9.7695,9.7695,9.7695,9.7695,9.7695,9.7578,9.7265,9.6679,9.6601,9.6328,9.4414,9.4219,9.4258,9.2929,9.2422,9.2304,9.2539,9.2929,9.3164,9.2969,9.3437,9.3984,9.4179,9.5469,9.6367,9.5898,9.6015,9.625,9.6484,9.5195,9.3906,9.3008,9.2539,9.2265,9.2265,9.1094,9.0234,9.0039,8.8047,8.6289,8.4961,8.4062,8.3203,8.2344,8.2304,8.1992,8.1328,8.1094,8.0273,7.8789,7.7969,7.6875,7.5547,7.5117,7.4219,9.7226,10.1211,10.4297,10.6211,10.6093,10.4804,10.2187,9.8867,9.4219,8.6679,8.1211,7.6445,7.2031,7.4726,7.875,8.2265,9.0859,9.8203,10.1484,10.4101,10.5312,10.4219,10.4804,10.4609,10.2812,10.3906,10.4492,10.3906,10.4609,10.6015,10.8086,10.8906,10.9297,10.9297,10.9297,10.9492,10.9883,10.9101,10.8711,10.8593,10.7695,10.7109,10.6797,10.4101,10.2695,10.2304,10.1406,10.0508,9.9687,10.1015,10.0898,9.9687,9.9179,9.8789,9.8359,9.789,9.7695,9.7695,9.7695,9.7695,9.7695,9.7695,9.7695,9.7617,9.7148,9.7109,9.6797,9.4961,9.4531,9.4336,9.2969,9.289,9.3086,9.2695,9.3281,9.3672,9.2773,9.2969,9.3554,9.4336,9.4961,9.5703,9.6836,9.6719,9.6484,9.6484,9.5351,9.4179,9.3437,9.289,9.2617,9.2617,9.1719,9.082,9.0078,8.8672,8.7031,8.5039,8.4453,8.3594,8.2344,8.2304,8.207,8.1562,8.1172,8.0547,7.9609,7.8711,7.7656,7.6445,7.5976,7.5078,10.2812,10.539,10.6992,10.6992,10.6015,10.3398,9.75,9.3008,8.7422,7.7969,7.332,6.9922,6.6523,6.9687,7.4101,7.8164,8.5859,9.3281,9.9062,10.1992,10.4219,10.6015,10.6914,10.6992,10.6093,10.6093,10.6406,10.6992,10.789,10.8008,10.7109,10.8515,10.9414,10.9492,10.9414,10.9687,11.039,10.8906,10.8515,10.9101,10.8203,10.7109,10.5586,10.3711,10.25,10.1719,10.0898,10.0508,10.0508,10.1406,10.0781,9.9336,9.9219,9.8633,9.7851,9.7734,9.7695,9.7695,9.7695,9.7695,9.7695,9.7695,9.7695,9.7695,9.7695,9.7226,9.6445,9.5469,9.4726,9.4023,9.3047,9.332,9.3711,9.2969,9.3242,9.3515,9.2773,9.2617,9.3125,9.4844,9.4609,9.4844,9.7265,9.7031,9.6523,9.664,9.5742,9.4492,9.2969,9.2656,9.25,9.2265,9.2265,9.1601,8.9961,8.9726,8.8281,8.5117,8.4883,8.4101,8.2383,8.2304,8.2265,8.2148,8.1484,8.1054,8.082,8.0195,7.9023,7.7383,7.7148,7.6172,10.75,10.8515,10.8789,10.8789,10.5508,10.0898,9.5547,8.8906,8.1172,7.1719,6.7578,6.4609,6.1172,6.582,7.2422,7.9414,8.6601,9.4375,10.3086,10.6015,10.7812,10.9492,11.0508,11.039,10.8789,10.9297,10.9492,10.8906,10.9687,10.9804,10.8906,10.9101,10.9609,11.039,10.9687,10.9414,10.9492,10.9218,10.8789,10.8203,10.7304,10.6797,10.6406,10.3984,10.2812,10.2617,10.1797,10.1406,10.1406,10.2304,10.2109,10.1094,10.039,9.9531,9.8672,9.7969,9.7695,9.7695,9.7695,9.7695,9.7695,9.7695,9.7695,9.7695,9.7695,9.7617,9.7187,9.5625,9.5625,9.5664,9.4101,9.3789,9.3867,9.3711,9.3242,9.2773,9.2617,9.2617,9.3125,9.4844,9.5078,9.5547,9.7383,9.7031,9.6719,9.7383,9.5586,9.4023,9.3711,9.3047,9.2031,9.0586,9.0469,9.0039,8.9023,8.832,8.707,8.5039,8.4883,8.4101,8.2383,8.2304,8.1953,8.125,8.1797,8.1367,7.9922,8.0508,7.9922,7.8242,7.6797,7.5586,11.0781,11.1015,11.039,10.9492,10.4687,9.8086,8.9765,8.2539,7.4687,6.4297,6.1875,6.0742,5.7734,6.3945,7.0859,7.4961,8.2578,9.0976,9.9609,10.3008,10.6093,11.0117,11.1797,11.2187,11.1406,11.1289,11.1093,11.0703,11.0586,11.0586,11.0703,11.0195,11.0,10.9883,10.9101,10.8789,10.9297,10.8906,10.8398,10.8008,10.7617,10.6914,10.6015,10.3906,10.289,10.2812,10.1484,10.1406,10.2304,10.2695,10.2383,10.1484,10.0586,9.9765,9.8906,9.8008,9.7695,9.7695,9.7695,9.7695,9.7695,9.7695,9.7695,9.7695,9.7695,9.7695,9.7344,9.5664,9.582,9.6094,9.4336,9.457,9.5039,9.4101,9.3242,9.2617,9.2617,9.2617,9.3125,9.4844,9.5195,9.5742,9.7422,9.7383,9.7265,9.7656,9.5547,9.375,9.3281,9.207,9.1094,9.0703,9.0664,9.0312,8.9453,8.8594,8.7383,8.5664,8.5156,8.4336,8.3047,8.2539,8.2109,8.1679,8.164,8.1211,8.039,8.0351,7.9687,7.8476,7.6719,7.543,11.2383,11.2383,11.1484,10.9687,10.3789,9.5625,8.4765,7.7187,6.9375,5.8555,5.7578,5.7969,5.5703,6.1992,6.8242,7.0351,7.7617,8.6015,9.4726,9.9219,10.3789,10.9609,11.2187,11.3398,11.3203,11.2617,11.2187,11.2187,11.1406,11.1015,11.1289,11.0703,11.0117,10.9609,10.8593,10.8515,10.9609,10.8281,10.7812,10.8008,10.7383,10.6601,10.539,10.3515,10.2695,10.2812,10.1289,10.1484,10.289,10.2695,10.2109,10.1211,10.039,9.9492,9.8633,9.7969,9.7578,9.746,9.765,9.7574,9.7461,9.7656,9.7695,9.7695,9.7695,9.7695,9.7344,9.5664,9.5937,9.6367,9.4648,9.5312,9.6054,9.4297,9.3242,9.2617,9.2617,9.2617,9.3125,9.4844,9.5195,9.5742,9.7422,9.7695,9.7695,9.7695,9.5547,9.3594,9.2695,9.1094,9.0195,9.0703,9.0742,9.039,8.9531,8.8828,8.7812,8.6289,8.5547,8.4687,8.3633,8.2929,8.25,8.2304,8.164,8.1172,8.1015,8.0312,7.957,7.8711,7.6992,7.5703,11.1484,11.1992,11.1484,10.9687,10.3008,9.4219,8.4492,7.5781,6.7031,5.7383,5.6172,5.6523,5.5508,5.8555,6.332,6.9687,7.4101,8.0781,9.25,9.8437,10.3515,10.8789,11.2383,11.4101,11.3281,11.3086,11.3086,11.3086,11.2304,11.1093,10.9609,10.9492,10.9687,11.0508,10.8906,10.8789,11.0508,10.8008,10.7187,10.8008,10.5703,10.4883,10.539,10.289,10.2187,10.2812,10.1914,10.1992,10.2812,10.1992,10.1211,10.0312,9.9453,9.8594,9.7812,9.7734,9.7226,9.6716,9.7466,9.7206,9.6719,9.7461,9.7695,9.7695,9.7695,9.7695,9.7344,9.5664,9.6367,9.7187,9.5508,9.5781,9.6054,9.4297,9.3242,9.2617,9.2617,9.2617,9.3125,9.4844,9.5195,9.5742,9.7422,9.7695,9.7695,9.7695,9.5547,9.3594,9.2695,9.1094,8.9726,8.9023,8.8945,8.8594,8.7812,8.7656,8.7226,8.625,8.6133,8.5312,8.3672,8.3515,8.3125,8.2304,8.2226,8.1797,8.1015,8.0937,8.0429,7.9531,7.7851,7.6601,11.2109,11.3515,11.289,11.0586,10.2383,9.2422,8.289,7.3672,6.4883,5.6914,5.5976,5.6484,5.6133,5.8047,6.125,6.6055,6.8437,7.3203,8.3203,8.8633,9.4609,10.289,10.7383,11.0703,11.3008,11.3203,11.3203,11.3203,11.2383,11.1406,11.0117,10.9609,10.9218,10.8984,10.8398,10.8281,10.8984,10.8008,10.7695,10.8008,10.5898,10.5195,10.539,10.2812,10.2109,10.289,10.1992,10.1797,10.2109,10.1719,10.1094,10.0195,9.9336,9.8789,9.8436,9.7884,9.7494,9.7251,9.7544,9.7436,9.7229,9.7544,9.7633,9.7667,9.7706,9.7682,9.7438,9.6227,9.6752,9.7425,9.6183,9.5775,9.5351,9.4179,9.3242,9.2617,9.2617,9.2617,9.2969,9.4179,9.4414,9.4961,9.6679,9.6992,9.7148,9.7617,9.5078,9.3008,9.2656,9.0195,8.8359,8.8008,8.8398,8.8554,8.8242,8.7773,8.7344,8.6992,8.6484,8.5664,8.4414,8.3867,8.3203,8.2304,8.2304,8.1601,8.0234,8.0234,7.9531,7.8164,7.6953,7.5937,10.9687,11.2383,11.2695,11.0117,10.1406,9.1094,8.1797,7.2383,6.3711,5.707,5.6172,5.6523,5.625,5.7851,6.0156,6.3047,6.4922,6.8828,7.6953,8.1601,8.75,9.6562,10.1015,10.5195,11.0117,11.2187,11.3086,11.2812,11.1992,11.1093,11.0312,10.9414,10.8789,10.8398,10.8086,10.8086,10.8398,10.789,10.7617,10.7617,10.5889,10.5097,10.5019,10.2608,10.1986,10.2806,10.1908,10.1595,10.1595,10.1283,10.0701,9.9844,9.8943,9.8582,9.8526,9.7884,9.7344,9.6965,9.7143,9.707,9.6887,9.7143,9.7202,9.7231,9.7252,9.7448,9.7446,9.6262,9.6586,9.7135,9.648,9.5703,9.4879,9.4062,9.3203,9.2578,9.2617,9.2617,9.2851,9.3711,9.4101,9.4765,9.625,9.6719,9.7031,9.7617,9.4804,9.2695,9.2969,8.9961,8.7851,8.7851,8.8359,8.8594,8.8359,8.7812,8.75,8.75,8.6914,8.6094,8.4961,8.4297,8.3437,8.2304,8.2304,8.1445,7.9687,7.9687,7.8828,7.7187,7.6562,7.5664,10.289,10.7383,11.0,10.7383,9.9609,9.0351,8.1679,7.2383,6.3906,5.7812,5.6601,5.6328,5.5469,5.7422,5.9765,6.1445,6.4648,6.9297,7.625,8.0156,8.457,9.0664,9.3711,9.7695,10.3711,10.9687,11.2812,11.1992,11.1093,11.0195,10.9414,10.8515,10.8398,10.9297,10.8398,10.8398,10.9297,10.7617,10.6719,10.6719,10.489,10.4097,10.4097,10.2314,10.2008,10.2789,10.1891,10.15,10.1391,10.061,9.9746,9.8906,9.7974,9.7661,9.772,9.7641,9.6558,9.5236,9.6054,9.5782,9.526,9.6054,9.6327,9.6288,9.6288,9.6912,9.7252,9.5582,9.5689,9.6327,9.6303,9.5699,9.4883,9.4022,9.3125,9.2539,9.2578,9.2617,9.2851,9.3711,9.4609,9.5469,9.6367,9.7148,9.7695,9.7695,9.4804,9.289,9.3789,9.0859,8.8672,8.8672,8.8711,8.8398,8.7578,8.75,8.75,8.75,8.75,8.6719,8.4961,8.4883,8.4062,8.2344,8.2304,8.1445,7.9687,7.9687,7.8828,7.7187,7.7187,7.625,9.3086,9.6367,9.7539,9.4375,8.8633,8.1836,7.4414,6.8125,6.2461,5.7617,5.6601,5.6719,5.7031,5.7265,5.914,6.4414,6.5664,6.7812,7.293,7.9687,8.5859,9.0703,10.0898,10.8281,11.0195,11.2109,11.2812,11.1992,11.1093,11.0195,10.9297,10.8515,10.8086,10.8398,10.7617,10.75,10.8398,10.6708,10.5787,10.5797,10.3417,10.232,10.2304,10.0501,10.0216,10.0996,10.0684,10.0294,9.9709,9.9436,9.8798,9.8022,9.7706,9.727,9.6731,9.6733,9.6369,9.5859,9.547,9.5587,9.5898,9.6132,9.582,9.5353,9.5353,9.5976,9.6731,9.6772,9.6525,9.6093,9.5548,9.4771,9.3911,9.3125,9.2707,9.25,9.2539,9.2578,9.2695,9.2969,9.3711,9.4609,9.5469,9.582,9.5976,9.5976,9.3554,9.1797,9.2109,9.0117,8.8711,8.8711,8.8711,8.8359,8.7578,8.75,8.75,8.75,8.75,8.6719,8.4961,8.4883,8.4062,8.2344,8.2304,8.1445,7.9687,7.9687,7.8828,7.7187,7.5976,7.5117,8.4101,8.8125,8.9531,8.6719,8.2344,7.7148,7.0937,6.5859,6.1484,5.7851,5.6836,5.6758,5.7305,5.7226,5.8711,6.3633,6.4531,6.6445,7.1758,7.8242,8.4922,9.1484,10.2695,10.9883,11.0312,11.2109,11.2695,11.1484,11.0898,11.0117,10.8906,10.8281,10.7812,10.75,10.6992,10.6992,10.75,10.6099,10.511,10.4385,10.31,10.1918,10.0886,10.0185,9.9951,10.0185,10.0497,9.999,0.0,9.9561,9.9133,9.8056,9.8057,9.7733,9.7145,9.6483,9.6249,9.6093,9.4885,9.5236,9.6132,9.582,9.5353,9.4846,9.4535,9.4846,9.5548,9.6756,9.6405,9.5587,9.508,9.434,9.3521,9.2703,9.251,9.2517,9.2538,9.2578,9.2617,9.2617,9.3281,9.4062,9.4609,9.4961,9.5078,9.4765,9.3003,9.171,9.171,9.0133,8.9032,8.9032,8.8758,8.8225,8.7461,8.7461,8.75,8.75,8.75,8.6719,8.4961,8.4883,8.4062,8.2344,8.2304,8.1445,7.9687,7.9062,7.8203,7.7187,7.5742,7.5078,0.0,8.1406,8.4219,8.2383,7.8984,7.4805,6.9805,6.4922,0.0,5.8242,5.707,5.6562,5.6758,5.7383,5.8555,6.0625,6.2305,6.5703,7.2461,7.7031,8.3398,9.3437,10.0703,10.5117,10.5586,11.0195,11.2383,11.0703,11.0508,10.9804,10.8086,10.789,10.7499,10.66,10.6483,10.6483,10.66,10.5592,10.4214,10.2709,10.3396,10.2406,9.9951,10.0808,10.0808,9.999,10.0808,10.0185,9.8938,10.0497,10.0185,9.8626,9.8665,9.8587,9.8236,9.6678,9.6093,9.5859,9.434,9.4846,9.6054,9.5119,9.4846,9.4729,9.3872,9.3638,9.4028,9.5665,9.547,9.4807,9.4807,9.4223,9.3405,9.2664,9.2508,9.2507,9.257,9.2617,9.2617,9.2617,9.3281,9.3906,9.3902,9.4566,9.4801,9.3905,9.2916,9.2274,9.2285,9.0713,8.9611,8.9611,8.8817,8.7983,8.7258,8.7382,8.7461,8.75,8.75,8.6758,8.5078,8.4922,8.4101,8.2422,8.2226,8.1328,7.9687,7.8008,7.7187,7.7187,7.6328,7.5898,6.3867,0.0,6.8867,6.6445,6.5586,6.4492,0.0,5.9687,5.8242,5.6328,5.5742,5.6211,5.8203,5.8203,5.9765,6.543,6.6719,6.8672,7.3594,8.4101,9.3906,10.0898,10.7304,11.0117,10.7695,11.0312,11.1797,11.0703,11.0,10.9101,10.8086,10.7383,10.6589,10.5698,10.4399,10.4399,10.5714,10.2801,10.1486,10.1681,10.1198,9.999,9.812,9.9016,9.9289,9.9094,9.8626,9.8548,9.8821,9.925,9.8392,9.6873,9.7535,9.66,9.4924,9.5119,9.5197,9.5158,9.4729,9.5314,9.5937,9.4457,9.4379,9.4613,9.3132,9.3171,9.3911,9.4924,9.4613,9.3989,9.3989,9.3366,9.2664,9.2469,9.2468,9.2481,9.2529,9.2546,9.2617,9.2617,9.3281,9.3884,9.3765,9.3935,9.3688,9.269,9.1793,9.1257,9.1268,9.0275,8.96,8.9585,8.881,8.7941,8.7117,8.719,8.7344,8.75,8.75,8.7031,8.5937,8.5234,8.4375,8.332,8.1328,8.0117,7.9687,7.8008,7.7187,7.7187,7.6328,7.5898,5.8398,6.1133,6.3476,6.2422,6.1953,6.1211,5.9453,5.7812,5.6328,5.4961,5.5039,5.5859,5.7656,5.8594,6.0547,6.5078,6.75,7.1523,7.9414,8.8633,9.7265,10.4492,10.8593,11.0508,10.9883,11.0703,11.0898,11.0117,10.9218,10.8281,10.75,10.6601,10.5604,10.4322,10.2514,10.2304,10.3591,10.1291,10.0317,10.0823,10.0691,9.999,9.8704,9.96,9.9561,9.8782,9.8704,9.8275,9.7652,9.847,9.8003,9.6834,9.7301,9.6912,9.6015,9.5626,9.5658,9.5746,9.4967,9.4893,9.4988,9.3706,9.3589,9.3706,9.2364,9.2325,9.2929,9.4022,9.3755,9.321,9.3599,9.2938,9.2247,9.2338,9.2206,9.2197,9.2671,9.2495,9.2372,9.2763,9.2964,9.3057,9.2987,9.2948,9.2638,9.1682,9.1431,9.1229,9.0815,9.0323,8.982,8.9461,8.8648,8.777,8.6996,8.6959,8.7135,8.7343,8.7344,8.6992,8.6211,8.5351,8.4297,8.3047,8.082,7.9687,7.9687,7.8008,7.7187,7.7187,7.6719,7.6484,5.7187,6.0234,6.3203,6.3125,6.2226,6.1055,6.0039,5.7461,5.5078,5.4336,5.4883,5.5937,5.7305,5.957,6.1875,6.4023,6.8359,7.5547,8.7226,9.2578,9.8086,10.5586,10.7695,10.9297,11.0898,11.0586,10.9883,10.9218,10.8203,10.7304,10.6601,10.5586,10.4398,10.2712,10.0905,10.0306,10.0901,10.0122,9.9834,10.0107,10.0808,10.0808,10.0107,10.0886,10.0302,9.8821,9.9444,9.8431,9.6522,9.8089,9.8182,9.7301,9.7387,9.7738,9.7972,9.6608,9.641,9.6547,9.5111,9.4369,9.3882,9.3059,9.2827,9.2633,9.1754,9.1522,9.1786,9.3006,9.2822,9.2432,9.3172,9.2656,9.1975,9.2127,9.1855,9.1828,9.2663,9.2343,9.2087,9.2783,9.2471,9.2082,9.2082,9.206,9.1832,9.1135,9.1522,9.16,9.0837,9.0439,8.9975,8.9279,8.8312,8.7461,8.6803,8.6764,8.6884,8.7118,8.7184,8.6797,8.5859,8.5234,8.4023,8.2148,8.0508,7.9687,7.9687,7.8008,7.7187,7.7187,7.7187,7.7187,5.9922,6.2461,6.3086,5.8828,5.8672,5.914,5.7539,5.6211,5.5273,5.5117,5.5781,5.7539,6.1328,6.3555,6.6094,6.9961,7.6094,8.3789,9.3711,9.8828,10.2617,10.539,10.8984,11.0312,10.7695,10.8008,10.8281,10.8203,10.6797,10.5781,10.5703,10.4219,10.2806,10.1688,10.0001,9.8792,9.812,9.7964,9.8626,10.0107,10.0185,10.0185,10.0107,10.0185,9.9756,9.8782,9.8159,9.7652,9.7364,9.8063,9.7596,9.6429,9.6896,9.6271,9.5221,9.561,9.5685,9.5525,9.5283,9.4674,9.3872,9.3059,9.2827,9.2633,9.1754,9.1522,9.155,9.1786,9.1735,9.1696,9.1812,9.1721,9.1561,9.1638,9.1543,9.1552,9.1796,9.1867,9.1933,9.2069,9.2083,9.2044,9.1967,9.1926,9.1832,9.16,9.1677,9.1677,9.1561,9.0284,8.9317,8.9201,8.777,8.6764,8.6648,8.6648,8.6726,8.6832,8.7065,8.625,8.4101,8.457,8.3711,8.125,8.0195,7.9687,7.9687,7.8008,7.7187,7.7187,7.7187,7.7187,5.7695,5.9844,6.1172,5.9726,6.1719,6.3711,6.2461,6.039,5.875,5.875,5.9453,6.1094,6.4492,6.7656,7.2226,7.9805,8.4492,8.9687,9.6836,9.914,10.1797,10.6289,10.7812,10.8515,10.8789,10.789,10.7304,10.7304,10.5312,10.4101,10.4101,10.2397,10.1085,10.0214,9.8887,9.7994,9.7574,9.7535,9.8353,10.0107,10.0613,10.1003,10.1393,10.0785,10.0219,9.9444,0.0,9.7382,9.6565,9.6776,9.6438,9.5755,9.5984,9.5894,9.5597,9.5342,9.5123,9.4844,9.3785,9.3136,9.2674,9.1867,9.1598,9.1559,9.1136,9.0985,9.0985,9.0985,9.1561,9.2064,9.16,9.1685,9.1831,9.1483,9.1198,9.118,9.1757,9.1644,9.163,9.2068,9.2025,9.187,9.1793,9.1793,9.1754,9.1716,9.1716,9.1522,9.1058,9.0323,8.9511,8.8582,8.777,8.7112,8.6648,8.661,8.6648,8.6803,8.6972,8.622,8.4258,8.457,8.3828,8.1758,8.039,7.9687,7.9687,7.8008,7.7187,7.7187,7.7187,7.7187,5.6484,5.8242,6.0234,6.2148,6.4648,6.6836,6.7344,6.4961,6.289,6.3906,6.4805,6.6015,6.8047,7.2422,7.875,8.8086,9.1562,9.4844,9.9804,10.0312,10.2187,10.7695,10.7187,10.7304,10.9804,10.7617,10.6093,10.6093,10.3711,10.25,10.289,10.1114,9.9771,9.9303,9.8197,9.7496,9.7262,9.7613,9.847,9.9795,10.0302,10.0987,10.1911,10.0589,9.9713,9.923,9.8287,9.7028,9.5631,9.5713,9.5608,9.5284,9.5223,9.5579,9.6088,9.5288,9.4869,9.4484,9.2936,9.2274,9.1969,9.1166,9.0899,9.0861,9.0669,9.0593,9.0631,9.0822,9.1681,9.2325,9.1708,9.2011,9.2294,9.1591,9.0992,9.0826,9.1564,9.1259,9.1056,9.1941,9.1894,9.1716,9.1716,9.1716,9.1716,9.1716,9.1716,9.1445,9.0787,9.0362,8.9627,8.835,8.7847,8.7345,8.6648,8.661,8.6648,8.6764,8.669,8.5962,8.448,8.4407,8.3554,8.1719,8.039,7.9609,7.9414,7.793,7.7187,7.7187,7.7187,7.7187,5.9922,6.1367,6.2148,6.4687,6.3711,6.3398,6.8125,6.7187,6.6445,7.043,7.1953,7.2617,7.2812,7.832,8.4922,9.1289,9.5781,10.0,10.4414,10.6289,10.7695,10.9101,10.9101,10.8789,10.8203,10.5898,10.4414,10.4414,10.1992,10.1211,10.2812,10.049,9.942,10.0083,9.847,9.7184,9.6327,9.7886,9.8782,9.886,9.812,9.8506,9.9747,9.8053,9.712,9.6841,9.6735,9.6193,9.539,9.5846,9.5759,9.5245,9.4964,9.4862,9.498,9.5393,9.5069,9.4419,9.4261,9.3688,9.2847,9.2007,9.1701,9.1586,9.0822,9.0593,9.0784,9.151,9.1782,9.1824,9.1785,9.2435,9.2814,9.1977,9.117,9.0631,9.0669,9.034,9.021,9.1056,9.147,9.1716,9.1716,9.1716,9.1716,9.1716,9.1716,9.1677,9.16,9.0246,8.924,8.9124,8.7654,8.6687,8.661,8.661,8.661,8.661,8.6004,8.4984,8.3527,8.3497,8.2344,7.9922,7.9765,7.9336,7.8594,7.7656,7.7187,7.7187,7.7187,7.7187,5.7695,6.0078,6.2187,6.4258,6.5664,6.7422,7.1015,7.2773,7.4375,7.7031,7.957,8.1328,8.1328,8.5625,9.0625,9.5078,9.9414,10.3594,10.7304,10.789,10.8281,10.9218,10.8281,10.7383,10.6484,10.4609,10.3203,10.2617,10.0703,9.9765,10.039,9.9008,9.8322,9.8563,9.7925,9.7145,9.621,9.7379,9.773,9.7184,9.8276,9.9073,9.9569,9.7993,9.7303,9.7286,9.6024,9.5307,9.4998,9.4667,9.4289,9.3985,9.4405,9.4554,9.4592,9.4763,9.4681,9.4338,9.3803,9.3038,9.2236,9.1892,9.1472,9.1013,9.0708,9.0593,9.0669,9.0975,9.1816,9.2465,9.193,9.2045,9.2083,9.1243,9.0822,9.0593,9.0593,9.0609,9.0748,9.1056,9.1431,9.1716,9.1716,9.1716,9.1716,9.1716,9.1716,9.1484,9.0942,8.9898,8.8969,8.8466,8.7306,8.661,8.661,8.661,8.661,8.661,8.5836,8.4946,8.4018,8.3516,8.2618,8.1211,8.0195,7.9531,7.9258,7.7851,7.7187,7.7187,7.7187,7.7187,5.6836,5.9297,6.2187,6.4219,6.7265,7.0937,7.5156,7.7578,7.9961,8.3867,8.5703,8.6953,8.8008,9.039,9.3476,9.7461,10.1797,10.5586,10.8515,10.8086,10.7812,10.8398,10.7187,10.6015,10.5195,10.3789,10.2695,10.2109,10.0117,9.9101,9.9414,9.832,9.7524,9.7187,9.7174,9.6756,9.5782,9.6366,9.6453,9.6053,9.7238,9.8129,9.8595,9.695,9.6397,9.6656,9.4983,9.4254,9.4254,9.3947,9.356,9.3191,9.407,9.4223,9.407,9.4567,9.4796,9.4681,9.4108,9.3497,9.2924,9.2389,9.1854,9.1281,9.0784,9.0593,9.0669,9.0899,9.1816,9.2618,9.2274,9.258,9.2733,9.1663,9.1204,9.0899,9.0753,9.0685,9.0787,9.1125,9.1462,9.1716,9.1716,9.1716,9.1716,9.1716,9.1716,9.1484,9.0903,8.9859,8.8776,8.7615,8.6958,8.661,8.661,8.661,8.661,8.661,8.5797,8.4985,8.4353,8.333,8.244,8.1718,8.0664,7.9844,7.9336,7.8164,7.7461,7.7187,7.7187,7.7187,5.8359,5.9765,6.2344,6.4961,6.8203,7.2812,8.0586,8.1015,8.2226,9.0859,8.9922,8.8594,9.1992,9.1914,9.3047,9.8164,10.2617,10.6093,10.7695,10.7187,10.6719,10.6719,10.6015,10.5117,10.4297,10.3398,10.289,10.289,10.039,9.9336,10.0195,9.8633,9.726,9.6315,9.629,9.582,9.4885,9.4885,9.5158,9.5684,9.4524,9.4888,9.6482,9.4429,9.3831,9.4338,9.3459,9.3115,9.3191,9.4032,9.3879,9.3191,9.4032,9.3841,9.3306,9.4949,9.556,9.5598,9.556,9.556,9.5293,9.365,9.3077,9.2771,9.109,9.0593,9.0784,9.1548,9.1778,9.2007,9.2847,9.4299,9.514,9.3497,9.2427,9.1632,9.103,9.0375,9.0201,9.1213,9.1561,9.1716,9.1716,9.1716,9.1716,9.1716,9.1716,9.1677,9.1677,9.0246,8.8544,8.6803,8.661,8.661,8.661,8.661,8.661,8.661,8.5797,8.4985,8.4353,8.2741,8.1576,8.082,8.0937,8.0156,7.8515,7.8515,7.8047,7.7187,7.7187,7.7187,5.7461,6.0195,6.4023,6.6015,7.1406,7.789,8.4453,8.5547,8.7109,9.3945,9.3554,9.25,9.414,9.5195,9.6484,9.8633,10.1601,10.4297,10.6015,10.6015,10.5586,10.5,10.4687,10.3984,10.25,10.1601,10.0586,9.9336,9.8008,9.7344,9.7617,9.6517,9.6002,9.6276,9.5705,9.4963,9.4067,9.4423,9.4407,9.3935,9.3785,9.4309,9.5277,9.387,9.3319,9.3459,9.3229,9.3115,9.3077,9.2733,9.2427,9.2198,9.2465,9.2809,9.3153,9.365,9.4223,9.4681,9.407,9.3421,9.2847,9.2351,9.1816,9.1243,9.0746,9.0635,9.0602,9.0296,9.1064,9.1948,9.1642,9.2789,9.3746,9.2592,9.1795,9.1184,9.0992,9.0941,9.1027,9.1361,9.1561,9.1716,9.1716,9.1716,9.1716,9.1716,9.1716,9.1251,9.0091,8.9511,8.8544,8.6803,8.661,8.661,8.661,8.661,8.661,8.661,8.5797,8.4946,8.4173,8.3231,8.2339,8.1577,8.0495,7.9765,7.9336,7.8164,7.7461,7.7187,7.7187,7.7187,6.0195,6.3203,6.7187,7.0625,7.6015,8.2304,8.9023,9.1328,9.3203,9.7187,9.6367,9.539,9.6953,9.75,9.832,10.0195,10.2187,10.3906,10.5312,10.5195,10.4804,10.4297,10.3906,10.3008,10.1289,10.0898,9.9961,9.7851,9.7265,9.6679,9.6015,9.5417,9.5018,9.4812,9.4589,9.4154,9.3506,9.3474,9.3419,9.3374,9.2801,9.3099,9.4061,9.3051,9.258,9.258,9.2236,9.2274,9.2542,9.2007,9.1816,9.1854,9.2542,9.2695,9.2656,9.3344,9.3726,9.3803,9.3268,9.2776,9.2282,9.1594,9.1059,9.0641,9.0296,8.9992,8.9725,8.9611,9.057,9.1491,9.1068,9.2026,9.291,9.2296,9.1835,9.1521,9.1275,9.14,9.1522,9.1581,9.1705,9.1759,9.1732,9.1771,9.1744,9.1716,9.1406,9.0826,8.982,8.9085,8.8273,8.7228,8.6803,8.661,8.661,8.661,8.661,8.661,8.6107,8.5294,8.4134,8.3386,8.2677,8.1908,8.1011,8.0273,7.9687,7.8672,7.7851,7.7187,7.7187,7.7187,6.4687,6.7422,7.1094,7.7226,8.1836,8.6758,9.3906,9.7461,9.9375,9.9961,9.8398,9.7656,10.0,9.9179,9.9219,10.2383,10.3594,10.4414,10.5195,10.4609,10.4101,10.4101,10.3281,10.2109,10.0508,10.0898,10.0195,9.7656,9.7383,9.6679,9.5154,9.4948,9.4159,9.2664,9.3249,9.3406,9.3102,9.2282,9.2367,9.3326,9.1713,9.1606,9.2847,9.2045,9.1739,9.1739,9.1052,9.1166,9.1892,9.1816,9.1816,9.193,9.3421,9.3077,9.1969,9.3497,9.3612,9.2962,9.2928,9.2894,9.2595,9.1102,9.0646,9.0532,8.9727,8.896,8.8538,8.919,9.0071,9.0838,9.0867,9.166,9.2387,9.2276,9.228,9.2194,9.162,9.1561,9.1655,9.1747,9.1849,9.1863,9.1812,9.1786,9.1759,9.1627,9.0903,9.0362,9.0234,8.888,8.7886,8.7809,8.7074,8.661,8.661,8.661,8.661,8.661,8.661,8.5836,8.4173,8.3463,8.2728,8.1929,8.1958,8.121,7.9687,7.9648,7.8789,7.7187,7.7183,7.7183,6.3203,6.6914,7.2226,7.9609,8.8125,9.5273,9.7656,9.9687,10.0508,9.8633,9.9453,10.0703,10.1211,10.1601,10.1992,10.2812,10.3086,10.3203,10.3398,10.3281,10.3203,10.3203,10.2383,10.1484,10.039,9.9219,9.7773,9.5898,9.5117,9.4559,9.4128,9.3456,9.3164,9.3405,9.2937,9.251,9.2187,9.181,9.1591,9.1556,9.0953,9.0829,9.1128,9.0937,9.1204,9.1778,9.1625,9.2045,9.2771,9.2083,9.1816,9.1778,9.151,9.1548,9.1778,9.1556,9.1827,9.2133,9.1564,9.0953,9.0302,8.9957,8.942,8.8921,8.873,8.8537,8.838,8.7842,8.9017,9.0224,8.9523,9.0574,9.1659,9.1113,9.1473,9.1716,9.0908,9.1308,9.1669,9.0996,9.1423,9.1888,9.1863,9.1863,9.163,9.0946,9.0624,9.0043,8.8776,8.8273,8.7744,8.7036,8.6853,8.6713,8.661,8.6662,8.6662,8.661,8.661,8.5836,8.4173,8.394,8.3244,8.1929,8.1267,8.053,7.9687,7.9062,7.8203,7.7187,7.7042,7.7049,6.4961,6.957,7.5469,8.4883,9.2812,9.8554,9.9414,10.1015,10.1797,10.0508,10.0898,10.1484,10.1094,10.1992,10.289,10.289,10.25,10.2304,10.2304,10.1914,10.1719,10.1719,10.1289,10.0508,9.9179,9.8242,9.6836,9.4726,9.414,9.3693,9.3185,9.2729,9.2663,9.3054,9.2471,9.2016,9.1694,9.1397,9.089,9.0187,9.0067,8.9791,8.9447,9.0249,9.0822,9.1204,9.0784,9.0861,9.1243,9.0784,9.0364,9.0058,9.044,9.0406,9.0141,9.0526,9.0759,9.0799,9.0378,9.0033,8.9572,8.8727,8.8226,8.7917,8.7917,8.7645,8.7333,8.7396,8.8143,8.8884,8.8527,8.9487,9.0417,9.0136,9.0671,9.101,9.0206,9.0408,9.0624,9.0159,9.078,9.1339,9.1316,9.1292,9.1112,9.0686,8.9886,8.9203,8.8747,8.7972,8.7444,8.7381,8.7018,8.6785,8.6713,8.6737,8.6737,8.6662,8.6662,8.6056,8.4714,8.4675,8.3786,8.1852,8.1437,8.0688,7.9609,7.9258,7.8419,7.7089,7.6978,7.6939,6.6289,7.25,7.9531,9.0,9.5703,9.8984,9.9883,10.1289,10.2383,10.2304,10.1992,10.1601,10.0703,10.1797,10.2812,10.25,10.1992,10.1484,10.1406,10.0781,10.0312,10.0312,10.0193,9.941,9.7656,9.7344,9.625,9.3867,9.367,9.3327,9.2561,9.2455,9.237,9.2308,9.2016,9.1616,9.1204,9.1077,9.0339,8.9103,8.9103,8.8721,8.8148,8.9523,9.0173,9.0135,8.9409,8.9103,8.9103,8.9103,8.8683,8.8224,8.9638,8.9376,8.8384,8.9802,8.9957,8.9419,8.9419,8.9417,8.9143,8.7721,8.7218,8.7171,8.7204,8.6704,8.6313,8.7194,8.7524,8.7726,8.7963,8.8655,8.9337,8.9292,8.9754,9.0058,8.9408,8.939,8.9507,8.9507,9.0323,9.1001,9.0957,9.0757,9.0555,9.0439,8.9081,8.8306,8.8849,8.7685,8.7103,8.784,8.7258,8.6832,8.6809,8.6809,8.6785,8.6713,8.6713,8.6275,8.5333,8.5294,8.4211,8.1929,8.2046,8.1402,7.9961,7.991,7.8982,7.7233,7.707,7.6929,6.1875,7.1914,8.3242,9.0742,9.5273,9.8086,9.8984,9.9922,10.039,9.9687,10.1211,10.25,10.1601,10.2187,10.2383,10.0898,10.1211,10.1289,10.0586,10.039,10.0312,10.0312,9.9627,9.85,9.6835,9.5937,9.4687,9.289,9.2709,9.2635,9.2507,9.2204,9.2049,9.1957,9.1694,9.105,9.0009,9.0668,9.0108,8.8262,8.8262,8.8186,8.811,8.8339,8.8415,8.8415,8.8301,8.8262,8.8262,8.8262,8.8186,8.811,8.8382,8.8383,8.8231,8.8652,8.8725,8.8685,8.8756,8.8329,8.7709,8.7445,8.6863,8.6319,8.6408,8.6392,8.6345,8.6644,8.732,8.7963,8.8011,8.87,8.9292,8.8613,8.8515,8.8593,8.8497,8.9002,8.9507,8.9507,9.0828,9.1915,9.1894,9.1229,9.043,8.9758,8.8822,8.7985,8.7389,8.7117,8.698,8.7054,8.7019,8.692,8.6809,8.6809,8.6785,8.6713,8.6662,8.6223,8.5333,8.5294,8.4482,8.2703,8.2893,8.2614,8.1758,8.101,7.9786,7.8123,7.7768,7.7256,6.664,7.4765,8.2734,9.0625,9.4453,9.664,9.7969,9.9336,10.0195,9.9804,10.0586,10.1211,10.0312,10.1289,10.1797,10.0508,10.0195,10.0,9.9648,9.875,9.816,9.8104,9.7355,9.6538,9.5777,9.4911,9.4062,9.3398,9.2833,9.2319,9.1788,9.1897,9.1733,9.1195,9.1185,9.0995,9.0479,9.0685,9.0108,8.8759,8.7804,8.7384,8.7345,8.6887,8.7192,8.8071,8.7575,8.7384,8.7384,8.7384,8.7118,8.6775,8.7274,8.7274,8.7041,8.7574,8.7837,8.7872,8.7979,8.7709,8.7325,8.6824,8.6401,8.6126,8.6246,8.6307,8.6366,8.6623,8.6994,8.7336,8.7442,8.7756,8.7992,8.7642,8.7564,8.772,8.8186,8.8574,8.9118,9.0051,9.0866,9.1527,9.2032,9.135,9.0457,8.9623,8.8787,8.7971,8.7098,8.6982,8.6982,8.6961,8.7428,8.7485,8.6916,8.7281,8.7336,8.6713,8.6687,8.6468,8.6068,8.6029,8.5449,8.4211,8.3476,8.2456,8.1138,8.0372,7.9349,7.8012,7.7317,7.6745,6.875,7.4023,7.8359,8.7656,9.1445,9.3633,9.6445,9.8086,9.9101,9.9531,9.9804,9.9687,9.8828,10.0117,10.0898,9.9804,9.9297,9.8905,9.8699,9.7407,9.6445,9.638,9.5615,9.5002,9.4807,9.4168,9.3748,9.3554,9.2929,9.215,9.1155,9.1587,9.1423,9.0429,9.0725,9.0797,9.0567,9.0183,8.9752,8.9294,8.7842,8.7001,8.6772,8.6123,8.6428,8.7422,8.7001,8.681,8.681,8.708,8.6814,8.6356,8.6777,8.6697,8.6342,8.6799,8.6987,8.7055,8.7055,8.7089,8.7006,8.6351,8.6191,8.6254,8.6366,8.6423,8.6478,8.6747,8.6854,8.6877,8.6961,8.6982,8.6982,8.6982,8.6982,8.7254,8.8108,8.8613,8.9313,9.0556,9.0983,9.1333,9.1993,9.1371,9.0595,8.9934,8.8963,8.8069,8.7409,8.7137,8.6982,8.6982,8.7544,8.764,8.6937,8.7459,8.7507,8.6751,8.6687,8.6662,8.661,8.661,8.6107,8.5024,8.3863,8.2553,8.1058,8.0348,7.933,7.813,7.7356,7.6685,6.2422,6.5586,6.8984,8.0078,8.4765,8.8203,9.4023,9.539,9.5937,9.75,9.8476,9.8789,9.7929,9.9179,9.9804,9.8125,9.8476,9.8699,9.7877,9.6979,9.6368,9.6301,9.5561,9.469,9.395,9.3837,9.3449,9.2617,9.2521,9.2022,9.0869,9.1282,9.102,8.9893,9.0378,9.0253,8.9412,8.8606,8.8606,8.9294,8.8453,8.7613,8.681,8.6772,8.6352,8.5702,8.6467,8.681,8.6887,8.7771,8.8078,8.804,8.7386,8.7187,8.7072,8.6406,8.617,8.617,8.617,8.623,8.6354,8.6277,8.6433,8.661,8.6737,8.6785,8.6809,8.6941,8.6982,8.6982,8.6982,8.6982,8.6982,8.6982,8.6982,8.7254,8.8108,8.9546,9.0711,9.0789,9.1488,9.2071,9.211,9.1371,9.0789,9.075,8.9351,8.8264,8.8225,8.7525,8.6982,8.6982,8.698,8.6937,8.6899,8.6824,8.6751,8.6713,8.6662,8.661,8.661,8.661,8.5836,8.4173,8.4095,8.3631,8.2883,8.1993,8.073,7.9018,7.8772,7.7753,6.0195,6.3242,6.6797,7.5234,8.0117,8.4023,8.8437,9.2422,9.5195,9.5234,9.6797,9.7734,9.6367,9.7461,9.8242,9.7109,9.7154,9.7026,9.6161,9.5757,9.5342,9.473,9.3874,9.321,9.2937,9.2405,9.2198,9.2473,9.1832,9.1196,9.0746,9.1052,9.0795,8.9752,9.03,9.044,9.0135,8.9867,8.9867,9.0135,8.9294,8.8456,8.7655,8.708,8.6393,8.5743,8.6508,8.6812,8.6887,8.7809,8.8232,8.8309,8.8111,8.8106,8.806,8.7248,8.6967,8.6986,8.6408,8.6307,8.6489,8.6489,8.6517,8.6636,8.6761,8.6809,8.6832,8.6961,8.6982,8.6982,8.6982,8.6982,8.6982,8.6982,8.7409,8.7914,8.8225,8.9623,9.0633,9.0051,9.1138,9.1915,9.1371,9.1488,9.1449,9.0866,8.9818,8.8885,8.838,8.7525,8.6982,8.6941,8.7425,8.7459,8.6824,8.7241,8.7268,8.6701,8.661,8.661,8.661,8.661,8.5797,8.4134,8.4095,8.3438,8.2045,8.0653,7.9597,7.8876,7.7691,7.6762,5.6873,5.9491,6.3125,7.0937,7.4336,7.7656,8.4609,8.8633,9.1367,9.3125,9.5039,9.6172,9.5351,9.5859,9.6327,9.6075,9.5973,9.5743,9.5172,9.4535,9.395,9.3327,9.2235,9.1534,9.1534,9.1028,9.095,9.1574,9.1075,9.0563,9.0159,9.071,9.0608,8.961,8.9684,8.9752,8.9752,8.9485,8.9332,8.9332,8.9027,8.8188,8.6891,8.6584,8.5858,8.4974,8.578,8.6241,8.6547,8.7504,8.7962,8.807,8.7868,8.8007,8.8297,8.7449,8.7194,8.7205,8.6626,8.6517,8.6662,8.6662,8.6713,8.6761,8.6854,8.6877,8.6877,8.6961,8.6982,8.6982,8.6982,8.6982,8.6982,8.6982,8.7681,8.8225,8.7914,8.9196,9.0284,8.9973,9.0633,9.1216,9.1255,9.1488,9.1566,9.1294,9.0245,8.9313,8.8769,8.7699,8.6941,8.6899,8.7381,8.7429,8.6751,8.7191,8.7242,8.6648,8.661,8.661,8.661,8.661,8.5797,8.4134,8.4095,8.3244,8.1504,8.0357,7.9585,7.9169,7.7676,7.663,0.0,0.0,0.0,6.668,6.7226,6.9023,8.2539,8.3828,8.4062,9.0898,9.3086,9.4023,9.4883,9.4375,9.4087,9.4823,9.5016,9.5016,9.4885,9.3458,9.2405,9.2313,9.0833,8.982,8.982,8.9858,8.9897,8.9936,9.0363,9.0159,8.9131,9.0317,9.0492,8.9332,8.853,8.811,8.811,8.7269,8.681,8.6772,8.7651,8.6734,8.4366,8.5246,8.4786,8.3292,8.4169,8.501,8.5775,8.6767,8.7291,8.7417,8.6624,8.6896,8.7693,8.688,8.6571,8.6571,8.6571,8.6674,8.677,8.6809,8.6899,8.6982,8.6982,8.6982,8.6982,8.6982,8.6982,8.6982,8.6982,8.6982,8.6982,8.6982,8.7642,8.8031,8.7176,8.8264,8.9662,9.0517,9.0051,9.0012,9.1682,9.1294,9.1061,9.1915,9.0556,8.9468,8.9468,8.795,8.6899,8.6899,8.6785,8.6713,8.6713,8.6636,8.661,8.661,8.661,8.661,8.661,8.661,8.5836,8.4173,8.4134,8.3283,8.1542,8.1427,8.091,7.9979,7.9008,7.7641,5.1631,0.0,0.0,0.0,0.0,0.0,7.0781,7.5547,7.9839,8.4247,8.8295,9.1132,9.1345,9.2202,9.2529,9.1522,9.2937,9.3677,9.2352,9.2313,9.1924,9.0677,9.0092,8.982,8.982,8.9235,8.9309,9.0343,8.9779,8.9697,9.0394,9.0608,9.0296,8.9332,8.9065,8.8683,8.811,8.7842,8.7156,8.6011,8.6853,8.6317,8.4588,8.4925,8.4527,8.3649,8.3903,8.3847,8.3683,8.5652,8.689,8.7417,8.6742,8.6981,8.7627,8.6157,8.5733,8.5807,8.5793,8.5901,8.6125,8.6747,8.6961,8.6982,8.6982,8.6982,8.6982,8.6982,8.6982,8.6982,8.6982,8.6982,8.6982,8.6982,8.7176,8.7292,8.7059,8.737,8.7759,8.7992,8.8846,8.9468,8.939,8.9623,8.9934,9.0167,8.9313,8.8593,8.8572,8.7619,8.6877,8.6785,8.6737,8.6687,8.6636,8.661,8.661,8.661,8.661,8.661,8.661,8.661,8.6107,8.4985,8.4985,8.4134,8.2432,8.1169,8.0357,7.9979,7.8373,7.7083,5.2052,5.2944,5.4541,5.6858,0.0,0.0,6.651,7.0226,7.4006,8.0007,8.3873,8.6645,8.8039,8.9447,9.0145,8.9482,9.095,9.1768,9.0716,9.0677,9.0404,8.9391,8.8923,8.8845,8.9235,8.8456,8.8383,8.9488,8.8854,8.8806,8.9725,8.9608,8.9179,8.8301,8.7918,8.7498,8.7001,8.6392,8.559,8.4744,8.524,8.4694,8.3279,8.3688,8.347,8.2775,8.283,8.2574,8.2316,8.3746,8.4839,8.5534,8.5166,8.5551,8.6258,8.5289,8.518,8.5596,8.5557,8.5872,8.6321,8.6826,8.6982,8.6943,8.6554,8.671,8.6826,8.6127,8.6166,8.6438,8.6438,8.671,8.6982,8.6982,8.6982,8.6982,8.6982,8.6982,8.7098,8.7487,8.8031,8.8536,8.8769,8.8924,8.9118,8.9468,8.8807,8.8282,8.8201,8.742,8.6832,8.6713,8.6687,8.6662,8.661,8.661,8.661,8.661,8.661,8.661,8.661,8.661,8.6184,8.5333,8.5294,8.4482,8.278,8.1749,8.0628,7.9439,7.8363,7.7189,5.3639,5.399,5.5435,5.9074,5.7313,0.0,6.5829,6.6466,6.7643,7.6191,7.8818,8.0647,8.4021,8.5437,8.6246,8.6884,8.813,8.9157,8.9586,8.9079,8.8573,8.8378,8.7754,8.7598,8.83,8.7637,8.741,8.7855,8.7733,8.7725,8.7921,8.7997,8.7653,8.6849,8.5895,8.5398,8.5398,8.3944,8.3208,8.3149,8.3324,8.264,8.128,8.2134,8.2084,8.135,8.149,8.1553,8.1553,8.1669,8.2217,8.2893,8.2837,8.3406,8.4223,8.4146,8.4612,8.5311,8.5505,8.6049,8.6749,8.6943,8.6943,8.671,8.5933,8.6166,8.6399,8.4845,8.5039,8.57,8.57,8.636,8.6982,8.6982,8.6982,8.6982,8.6982,8.6982,8.7215,8.7992,8.7525,8.7448,8.8963,8.8613,8.8419,8.9118,8.8613,8.8127,8.8063,8.7297,8.6761,8.6713,8.6636,8.661,8.661,8.661,8.661,8.661,8.661,8.661,8.661,8.661,8.6261,8.5449,8.5256,8.4405,8.278,8.2535,8.1142,7.8706,7.8574,7.7631,5.8089,5.7972,5.7972,5.7465,5.8246,0.0,5.813,6.08,6.409,6.6567,6.9422,7.2288,7.4962,7.6731,7.7576,7.7081,8.0653,8.4708,8.8247,8.9196,8.904,8.7637,8.791,8.8027,8.752,8.7287,8.705,8.6776,8.6896,8.7006,8.704,8.7198,8.7121,8.681,8.5585,8.4851,8.4707,8.3917,8.2887,8.1629,8.241,8.2301,8.144,8.1755,8.1801,8.1646,8.1755,8.1834,8.1834,8.1854,8.228,8.2854,8.23,8.2611,8.3291,8.2631,8.2514,8.2825,8.4185,8.4767,8.5156,8.6554,8.6515,8.5933,8.5738,8.5311,8.4845,8.4495,8.5039,8.57,8.57,8.636,8.6982,8.6982,8.6982,8.6982,8.6982,8.6982,8.7059,8.7215,8.7098,8.7098,8.7409,8.737,8.7292,8.7448,8.729,8.717,8.7065,8.6878,8.6713,8.6636,8.661,8.661,8.661,8.661,8.661,8.661,8.661,8.661,8.661,8.661,8.6532,8.6339,8.5024,8.3824,8.278,8.1311,8.001,7.8825,7.8034,7.7092,6.0974,6.0393,6.0315,5.9885,5.9441,0.0,0.0,5.9061,6.0721,6.4507,6.5297,6.6464,7.0314,7.1708,7.2375,7.285,7.6902,8.0474,8.1827,8.5414,8.7404,8.6118,8.6351,8.6585,8.6585,8.6196,8.5766,8.5265,8.5197,8.4974,8.4552,8.5043,8.5043,8.4552,8.4302,8.4138,8.4033,8.338,8.268,8.1994,8.2109,8.1988,8.1691,8.1755,8.1814,8.1814,8.1873,8.1892,8.1892,8.1892,8.2087,8.2358,8.2029,8.2164,8.2436,8.2048,8.2164,8.2631,8.3446,8.4029,8.4534,8.5428,8.5428,8.4962,8.4534,8.3835,8.3252,8.3641,8.4379,8.5039,8.5039,8.601,8.6982,8.6982,8.6982,8.6982,8.6982,8.6982,8.6982,8.6982,8.6982,8.6982,8.6982,8.6982,8.6982,8.6982,8.6961,8.692,8.6809,8.6785,8.6713,8.661,8.661,8.661,8.661,8.661,8.661,8.661,8.661,8.6416,8.5991,8.6377,8.6416,8.5952,8.4327,8.3012,8.2161,8.0396,7.9327,7.894,7.7949,7.7047,6.4034,6.326,6.3338,6.3032,6.1368,5.9857,0.0,0.0,0.0,6.3339,6.2225,6.1732,6.6047,6.6834,6.7285,6.8645,7.2905,7.5424,7.3534,7.9166,8.3311,8.296,8.3778,8.4441,8.4606,8.3486,8.2958,8.3506,8.2459,8.1869,8.2023,8.2516,8.2593,8.2061,8.2432,8.2725,8.294,8.2207,8.1994,8.236,8.1613,8.1465,8.1892,8.1737,8.1737,8.1892,8.1892,8.1892,8.1892,8.1892,8.1815,8.1659,8.1659,8.1737,8.1892,8.1698,8.2164,8.2903,8.3058,8.3563,8.4185,8.434,8.4301,8.399,8.3136,8.2436,8.2048,8.2669,8.3485,8.4146,8.4146,8.5428,8.6749,8.6749,8.6749,8.6787,8.6943,8.6865,8.6787,8.6982,8.6982,8.6982,8.6982,8.6982,8.6982,8.6982,8.6961,8.692,8.6809,8.6785,8.6737,8.661,8.661,8.661,8.661,8.661,8.661,8.661,8.661,8.6223,8.5333,8.5836,8.572,8.483,8.3476,8.2277,8.1271,7.9724,7.8912,7.8718,7.7794,7.6958,6.9095,6.8911,6.8437,6.3925,6.4851,6.4919,5.7507,0.0,5.9099,5.6703,0.0,5.7149,5.8402,0.0,0.0,5.8961,6.4494,6.7959,6.5545,7.0471,7.48,7.6185,8.0396,8.2242,7.9869,7.7278,7.7344,8.1231,7.7823,7.7169,8.0946,8.0675,8.0636,8.1138,8.0084,7.9842,8.0497,7.9811,7.9908,8.0746,7.9951,8.0416,8.1854,8.1116,8.1154,8.1892,8.1892,8.1892,8.1892,8.1892,8.1426,8.0766,8.0766,8.1232,8.1815,8.1038,8.131,8.2126,8.2864,8.3174,8.3369,8.4146,8.3874,8.3097,8.2281,8.197,8.1931,8.2009,8.2631,8.3252,8.3252,8.4534,8.5855,8.5855,8.5855,8.6049,8.6826,8.6399,8.6088,8.6826,8.6982,8.6982,8.6982,8.6982,8.6982,8.6982,8.6899,8.6832,8.6809,8.6713,8.6636,8.661,8.661,8.661,8.661,8.661,8.661,8.661,8.661,8.6223,8.5333,8.4714,8.3979,8.3089,8.2896,8.2006,8.0343,7.9453,7.8602,7.7829,7.6867,7.6378,6.9342,7.0251,7.0836,6.5596,6.5777,6.5633,5.9476,5.7597,5.7184,5.7158,0.0,0.0,0.0,0.0,0.0,0.0,6.1452,6.3757,6.1186,6.5148,6.9351,7.2069,7.3798,7.51,7.5914,7.6737,7.779,7.9129,7.7911,7.7483,7.8309,7.9018,7.9327,7.9081,7.9031,7.9183,7.9492,7.9222,7.9308,7.9757,7.997,8.0455,8.1116,8.0766,8.0805,8.1154,8.1154,8.0844,8.0416,8.0921,8.0649,7.9795,7.929,7.96,8.0416,8.0533,8.0844,8.1271,8.2126,8.2398,8.2475,8.2825,8.2708,8.232,8.2009,8.1892,8.1892,8.1892,8.2475,8.3097,8.3097,8.4029,8.4962,8.4962,8.4962,8.5039,8.5428,8.5583,8.5816,8.6166,8.6243,8.6243,8.6243,8.6671,8.6982,8.6982,8.692,8.6854,8.6809,8.6737,8.6662,8.661,8.661,8.661,8.661,8.661,8.6377,8.5875,8.4946,8.4443,8.4598,8.3322,8.2664,8.278,8.2316,8.1194,7.9492,7.9144,7.8293,7.6939,7.6529,7.635,7.0075,7.1218,7.2049,6.612,6.5334,6.4739,6.0164,5.7677,5.6795,5.8411,5.7319,0.0,0.0,0.0,5.6853,5.6969,0.0,6.0222,5.7851,6.0381,6.361,6.663,6.7329,6.8953,7.2418,7.4586,7.5747,7.5576,7.5933,7.6026,7.574,7.69,7.7519,7.7365,7.7945,7.834,7.8408,7.8413,7.8592,7.8884,7.931,7.9795,8.0222,7.9989,8.0028,8.0222,8.0222,7.9872,7.9328,7.9989,7.9717,7.8862,7.8241,7.8241,7.8707,7.9562,8.0183,8.0688,8.131,8.1698,8.1892,8.1892,8.1892,8.1892,8.1892,8.1892,8.1892,8.1892,8.232,8.2786,8.2786,8.3408,8.4029,8.4029,8.4029,8.4107,8.434,8.4728,8.5078,8.5311,8.535,8.535,8.535,8.5855,8.6282,8.6262,8.6415,8.6505,8.6398,8.6582,8.6662,8.661,8.661,8.661,8.661,8.6377,8.5875,8.5024,8.3592,8.3089,8.3708,8.2316,8.1813,8.2432,8.1813,8.0691,7.8989,7.8989,7.8099,7.6397,7.6397,7.6397,7.3013,7.2866,7.236,6.4697,6.3439,6.274,5.7494,5.8095,5.9542,5.8776,6.0442,6.1793,6.1018,5.9533,5.7854,5.6212,5.6676,0.0,0.0,5.542,5.6566,5.838,6.2106,6.5866,6.9241,6.8252,6.809,6.981,6.9331,7.0429,7.3806,7.4038,7.4773,7.6397,7.6475,7.6544,7.669,7.669,7.7138,7.8046,7.7231,7.7697,7.929,7.8474,7.8552,7.9328,7.9328,7.9328,7.929,7.9328,7.8823,7.8046,7.8008,7.7503,7.6881,7.7775,7.9134,8.061,8.0649,8.1193,8.1892,8.1892,8.1892,8.1892,8.1892,8.1892,8.1892,8.1892,8.1931,8.1931,8.1931,8.2553,8.3136,8.3136,8.3136,8.3369,8.4223,8.3757,8.3446,8.4301,8.4456,8.4456,8.4456,8.4456,8.4476,8.4397,8.507,8.5506,8.5459,8.612,8.661,8.661,8.661,8.661,8.661,8.5836,8.4985,8.4173,8.3283,8.2819,8.2819,8.1968,8.1504,8.1542,8.1504,8.0691,7.8989,7.8989,7.8099,7.6397,7.6397,7.6397,0.0,0.0,7.9114,6.9786,0.0,0.0,5.9614,5.8884,5.9508,5.8023,5.9727,6.1254,6.0365,5.9283,5.8278,5.768,5.6792,5.5421,0.0,5.2028,5.2679,5.606,5.9773,6.2208,6.2734,6.655,6.8559,6.7464,6.9231,7.0921,7.2104,7.3264,7.4386,7.5508,7.6088,7.6444,7.651,7.6591,7.6769,7.7156,7.7446,7.7852,7.8435,7.8124,7.8163,7.8435,7.8435,7.8124,7.7619,7.8202,7.793,7.7153,7.7153,7.6959,7.6803,7.7697,7.8746,7.9911,8.096,8.1522,8.1734,8.1669,8.1691,8.1755,8.1755,8.1407,8.1154,8.1737,8.1465,8.1154,8.1737,8.2087,8.232,8.232,8.232,8.2398,8.2669,8.2941,8.3174,8.3485,8.3524,8.3699,8.4262,8.3853,8.3659,8.4262,8.451,8.4831,8.539,8.5642,8.5952,8.6532,8.6068,8.5759,8.5759,8.4443,8.3515,8.3244,8.2432,8.1929,8.1929,8.1658,8.1233,8.0653,8.0653,7.9801,7.8138,7.8138,7.7519,7.6397,7.6397,7.6397,8.0144,8.1754,0.0,7.4063,7.2684,0.0,6.3031,0.0,6.2853,6.1113,6.1786,6.3152,6.4733,6.1863,5.9377,5.9605,5.7191,5.4259,0.0,5.0486,5.108,5.3497,5.6582,5.9011,6.0281,6.3962,6.5981,6.5329,6.7304,6.8949,6.9899,7.1872,7.3496,7.4657,7.5817,7.6444,7.651,7.6591,7.6614,7.6729,7.7252,7.7541,7.7541,7.7541,7.7541,7.7541,7.7541,7.7231,7.6726,7.7308,7.7231,7.6687,7.6687,7.6708,7.6749,7.7329,7.8261,7.9408,8.07,8.1352,8.1546,8.1141,8.1136,8.1187,8.0877,8.0495,8.0261,8.0805,8.0572,8.0339,8.1193,8.1426,8.1504,8.1815,8.1892,8.1892,8.1892,8.232,8.2669,8.2669,8.2669,8.2864,8.3369,8.3193,8.3211,8.3814,8.4311,8.4731,8.4964,8.5177,8.5526,8.6068,8.5372,8.4753,8.4443,8.3399,8.2664,8.2355,8.1813,8.1504,8.1504,8.1194,8.1078,8.1117,8.0227,7.9376,7.8602,7.7983,7.7248,7.6397,7.6397,7.6397]},{"header":{"parameterUnit":"m.s-1","parameterCategory":1,"la1":30.6,"la2":29.2853,"lo1":-89.7004,"lo2":-87.6739,"dy":0.0162,"dx":0.0183,"nx":112,"ny":82,"refTime":"2023-10-28T06:00:00:Z","depth":0,"parameterNumber":3,"parameterNumberName":"V-component_of_WINDS"},"data":[0.0,0.0,0.0,0.0,0.0,0.0,0.0,0.0,0.0,0.0,0.0,0.0,0.0,0.0,0.0,0.0,0.0,0.0,0.0,0.0,0.0,0.0,0.0,0.0,0.0,0.0,0.0,0.0,0.0,0.0,0.0,0.0,0.0,0.0,0.0,0.0,0.0,0.0,0.0,0.0,0.0,0.0,0.0,0.0,0.0,0.0,0.0,0.0,0.0,0.0,0.0,0.0,0.0,0.0,0.0,0.0,0.0,0.0,0.0,0.0,0.0,0.0,0.0,0.0,0.0,0.0,0.0,0.0,0.0,0.0,0.0,0.0,0.0,0.0,0.0,0.0,0.0,0.0,0.0,0.0,0.0,0.0,0.0,0.0,0.0,0.0,0.0,0.0,0.0,0.0,0.0,0.0,0.0,0.0846,0.277,0.1034,0.0,0.0,0.0,0.0,0.0,0.0,0.0,0.0,0.0,0.0,0.0,0.0,0.0,0.0,0.0,0.0,0.0,0.0,0.0,0.0,0.0,0.0,0.0,0.0,0.0,0.0,0.0,0.0,0.0,0.0,0.0,0.0,0.0,0.0,0.0,0.0,0.0,0.0,0.0,0.0,0.0,0.0,0.0,0.0,0.0,0.0,0.0,0.0,0.0,0.0,0.0,0.0,0.0,0.0,0.0,0.0,0.0,0.0,0.0,0.0,0.0,0.0,0.0,0.0,0.0,0.0,0.0,0.0,0.0,0.0,0.0,0.0,0.0,0.0,0.0,0.0,0.0,0.0,0.0,0.0,0.0,0.0,0.0,0.0,0.0,0.0,0.0,0.0,0.0,0.0,0.0,0.0,0.0,0.0,0.0,0.0,0.0,0.0,0.0,0.0,0.0,0.0,0.0,0.0,0.0,0.0,0.0,0.0,0.0,0.0213,0.0426,0.0201,0.0,0.0,0.0,0.0,0.0,0.0,0.0,0.0,0.0,0.0,0.0,0.0,0.0,0.0,0.0,0.0,0.0,0.0,0.0,0.0,0.0,0.0,0.0,0.0,0.0,0.0,0.0,0.0,0.0,0.0,0.0,0.0,0.0,0.0,0.0,0.0,0.0,0.0,0.0,0.0,0.0,0.0,0.0,0.0,0.0,0.0,0.0,0.0,0.0,0.0,0.0,0.0,0.0,0.0,0.0,0.0,0.0,0.0,0.0,0.0,0.0,0.0,0.0,0.0,0.0,0.0,0.0,0.0,0.0,0.0,0.0,0.0,0.0,0.0,0.0,0.0,0.0,0.0,0.0,0.0,0.0,0.0,0.0,0.0,0.0,0.0,0.0,0.0,0.0,0.0,0.0,0.0,0.0,0.0,0.0,0.0,0.0,0.0,0.0,0.0,0.0,0.0,0.0,0.0,0.0,0.0,0.0,0.0,0.0,0.0,0.0,0.0,0.0,0.0,0.0,0.0,0.0,0.0,0.0,0.0,0.0,0.0,0.0,0.0,0.0,0.0,0.0,0.0,0.0,0.0,0.0,0.0,0.0,0.0,0.0,0.0,0.0,0.0,0.0,0.0,0.0,0.0,0.0,0.0,0.0,0.0,0.0,0.0,0.0,0.0,0.0,0.0,0.0,0.0,0.0,0.0,0.0,0.0,0.0,0.0,0.0,0.0,0.0,0.0,0.0,0.0,0.0,0.0,0.0,0.0,0.0,0.0,0.0,0.0,0.0,0.0,0.0,0.0,0.0,0.0,0.0,0.0,0.0,0.0,0.0,0.0,0.0,0.0,0.0,0.0,0.0,0.0,0.0,0.0,0.0,0.0,0.0,0.0,0.0,0.0,0.0,0.0,0.0,0.0,0.0,0.0,0.0,0.0,0.0,0.0,0.0,0.0,0.0,0.0,0.0,0.0,0.0,0.0,0.0,0.0,0.0,0.0,0.0,0.0,0.0,0.0,0.0,0.0,0.0,0.0,0.0,0.0,0.0,0.0,0.0,0.0,0.0,0.0,0.0,0.0,0.0,0.0,0.0,0.0,0.0,0.0,0.0,0.0,0.0,0.0,0.0,0.0,0.0,0.0,0.0,0.0,0.0,0.0,0.0,0.0,0.0,0.0,0.0,0.0,0.0,0.0,0.0,0.0,0.0,0.0,0.0,0.0,0.0,0.0,0.0,0.0,0.0,0.0,0.0,0.0,0.0,0.0,0.0,0.0,0.0,0.0,0.0,0.0,0.0,0.0,0.0,0.0,0.0,0.0,0.0,0.0,0.0,0.0,0.0,0.0,0.0,0.0,0.0,0.0,0.0,0.0,0.0,0.0,0.0,0.0,0.0,0.0,0.0,0.0,0.0,0.0,0.0,0.0,0.0,0.0,0.0,0.0,0.0,0.0,0.0,0.0,0.0,0.0,0.0,0.0,0.0,0.0,0.0,0.0,0.0,0.0,0.0,0.0,0.0,0.0,0.0,0.0,0.0,0.0,0.0,0.0,0.0,0.0,0.0,0.0,0.0,0.0,0.0,0.0,0.0,0.0,0.0,0.0,0.0,0.0,0.0,0.0,0.0,0.0,0.0,0.0,0.0,0.0,0.0,0.0,0.0,0.0,0.0,0.0,0.0,0.0,0.0,0.0,0.0,0.0,0.0,0.0,0.0,0.0,0.0,0.0,0.0,0.0,0.0,0.0,0.0,0.0,0.0,0.0,0.0,0.0,0.0,0.0,0.0,0.0,0.0,0.0,0.0,0.0,0.0,0.0,0.0,0.0,0.0,0.0,0.0,0.0,0.0,0.0,0.0,0.0,0.0,0.0,0.0,0.0,0.0,0.0,0.0,0.0,0.0,0.0,0.0,0.0,0.0,0.0,0.0,0.0,0.0,0.0,0.0,0.0,0.0,0.0,0.0,0.0,0.0,0.0,0.0,0.0,0.0,0.0,0.0,0.0,0.0,0.0,0.0,0.0,0.0,0.0,0.0,0.0,0.0,0.0,0.0,0.0,0.0,0.0,0.0,0.0,0.0,0.0,0.0,0.0,0.0,0.0,0.0,0.0,0.0,0.0,0.0,0.0,0.0,0.0,0.0,0.0,0.0,0.0,0.0,0.0,0.0,0.0,0.0,0.0,0.0,0.0,0.0,0.0,0.0,0.0,0.0,0.0,0.0,0.0,0.0,0.0,0.0,0.0,0.0,0.0,0.0,0.0,0.0,0.0,0.0,0.0,0.0,0.0,0.0,0.0,0.0,0.0,0.0,0.0,0.0,0.0,0.0,0.0,0.0,0.0,0.0,0.0,0.0,0.0,0.0,0.0,0.0,0.0,0.0,0.0,0.0,0.0,0.0,0.0,0.0,0.0,0.0,0.0,0.0,0.0,0.0,0.0,0.0,0.0,0.0,0.0,0.0,0.0,0.0,0.0,0.0,0.0,0.0,0.0,0.0,0.0,0.0,0.0,0.0,0.0,0.0,0.0,0.0,0.0,0.0,0.0,0.0,0.0,0.0,0.0,0.0,0.0,0.0,0.0,0.0,0.0,0.0,0.0,0.0,0.0,0.0,0.0,0.0,0.0,0.0,0.0,0.0,0.0,0.0,0.0,0.0,0.0,0.0,0.0,0.0,0.0,0.0,0.0,0.0,0.0,0.0,0.0,0.0,0.0,0.0,0.0,0.0,0.0,0.0,0.0,0.0,0.0,0.0,0.0,0.0,0.0,0.0,0.0,0.0,0.0,0.0,0.0,0.0,0.0,0.0,0.0,0.0,0.0,0.0,0.0,0.0,0.0,0.0,0.0,0.0,0.0,0.0,0.0,0.0,0.0,0.0,0.0,0.0,0.0,0.0,0.0,0.0,0.0,0.0,0.0,0.0,0.0,0.0,0.0,0.0,0.0,0.0,0.0,0.0,0.0,0.0,0.0,0.0,0.0,0.0,0.0,0.0,0.0,0.0,0.0,0.0,0.0,0.0,0.0,0.0,0.0,0.0,0.0,0.0,0.0,0.0,0.0,0.0,0.0,0.0,0.0,0.0,0.0,0.0,0.0,0.0,0.0,0.0,0.0,0.0,0.0,0.0,0.0,0.0,0.0,0.0,0.0,0.0,0.0,0.0,0.0,0.0,0.0,0.0,0.0,0.0,0.0,0.0,0.0,0.0,0.0,0.0,0.0,0.0,0.0,0.0,0.0,0.0,0.0,0.0,0.0,0.0,0.0,0.0,0.0,0.0,0.0,0.0,0.0,0.0,0.0,0.0,0.0,0.0,0.0,0.0,0.0,0.0,0.0,0.0,0.0,0.0,0.0,0.0,0.0,0.0,0.0,0.0,0.0,0.0,0.0,0.0,0.0,0.0,0.0,0.0,0.0,0.0,0.0,0.0,0.0,0.0,0.0,0.0,0.0,0.0,0.0,0.0,0.0,0.0,0.0,0.0,0.0,0.0,0.0,0.0,0.0,0.0,0.0,0.0,0.0,0.0,0.0,0.0,0.0,0.0,0.0,0.0,0.0,0.0,0.0,0.0,0.0,0.0,0.0,0.0,0.0,0.0,0.0,0.0,0.0,0.0,0.0,0.0,0.0,0.0,0.0,0.0,0.0,0.0,0.0,0.0,0.0,0.0,0.0,0.0,0.0,0.0,0.0,0.0,0.0,0.0,0.0,0.0,0.0,0.0,0.0,0.0,0.0,0.0,0.0,0.0,0.0,0.0,0.0,0.0,0.0,0.0,0.0,0.0,0.0,0.0,0.0,0.0,0.0,0.0,0.0,0.0,0.0,0.0,0.0,0.0,0.0,0.0,0.0,0.0,0.0,0.0,0.0,0.0,0.0,0.0,0.0,0.0,0.0,0.0,0.0,0.0,0.0,0.0,0.0,0.0,0.0,0.0,0.0,0.0,0.0,0.0,0.0,0.0,0.0,0.0,0.0,0.0,0.0,0.0,0.0,0.0,0.0,0.0,0.0,0.0,0.0,0.0,0.0,0.0,0.0,0.0,0.0,0.0,0.0,0.0,0.0,0.0,0.0,0.0,0.0,0.0,0.0,0.0,0.0,0.0,0.0,0.0,0.0,0.0,0.0,0.0,0.0,0.0,0.0,0.0,0.0,0.0,0.0,0.0,0.0,0.0,0.0,0.0,0.0,0.0,0.0,0.0,0.0,0.0,0.0,0.0,0.0,0.0,0.0,0.0,0.0,0.0,0.0,0.0,0.0,0.0,0.0,0.0,0.0,0.0,0.0,0.0,0.0,0.0,0.0,0.0,0.0,0.0,0.0,0.0,0.0,0.0,0.0,0.0,0.0,0.0,0.0,0.0,0.0,0.0,0.0,0.0,0.0,0.0,0.0,0.0,0.0,0.0,0.0,0.0,0.0,0.0,0.0,0.0,0.0,0.0,0.0,0.0,0.0,0.0,0.0,0.0,0.0,0.0,0.0,0.0,0.0,0.0,0.0,0.0,0.0,0.0,0.0,0.0,0.0,0.0,0.0,0.0,0.0,0.0,0.0,0.0,0.0,0.0,0.0,0.0,0.0,0.0,0.0,0.0,0.0,0.0,0.0,0.0,0.0,0.0,0.0,0.0,0.0,0.0,0.0,0.0,0.0,0.0,0.0,0.0,0.0,0.0,0.0,0.0,0.0,0.0,0.0,0.0,0.0,0.0,0.0,0.0,0.0,0.0,0.0,0.0,0.0,0.0,0.0,0.0,0.0,0.0,0.0,0.0,0.0,0.0,0.0,0.0,0.0,0.0,0.0,0.0,0.0,0.0,0.0,0.0,0.0,0.0,0.0,0.0,0.0,0.0,0.0,0.0,0.0,0.0,0.0,0.0,0.0,0.0,0.0,0.0,0.0,0.0,0.0,0.0,0.0,0.0,0.0,0.0,0.0,0.0,0.0,0.0,0.0,0.0,0.0,0.0,0.0,0.0,0.0,0.0,0.0,0.0,0.0,0.0,0.0,0.0,0.0,0.0,0.0,0.0,0.0,0.0,0.0,0.0,0.0,0.0,0.0,0.0,0.0,0.0,0.0,0.0,0.0,0.0,0.0,0.0,0.0,0.0,0.0,0.0,0.0,0.0,0.0,0.0,0.0,0.0,0.0,0.0,0.0,0.0,0.0,0.0,0.0,0.0,0.0,0.0,0.0,0.0,0.0,0.0,0.0,0.0,0.0,0.0,0.0,0.0,0.0,0.0,0.0,0.0,0.0,0.0,0.0,0.0,0.0,0.0,0.0,0.0,0.0,0.0,0.0,0.0,0.0,0.0,0.0,0.0,0.0,0.0,0.0,0.0,0.0,0.0,0.0,0.0,0.0,0.0,0.0,0.0,0.0,0.0,0.0,0.0,0.0,0.0,0.0,0.0,0.0,0.0,0.0,0.0,0.0,0.0,0.0,0.0,0.0,0.0,0.0,0.0,0.0,0.0,0.0,0.0,0.0,0.0,0.0,0.0,0.0,0.0,0.0,0.0,0.0,0.0,0.0,0.0,0.0,0.0,0.0,0.0,0.0,0.0,0.0,0.0,0.0,0.0,0.0,0.0,0.0,0.0,0.0,0.0,0.0,0.0,0.0,0.0,0.0,0.0,0.0,0.0,0.0,0.0,0.0,0.0,0.0,0.0,0.0,0.0,0.0,0.0,0.0,0.0,0.0,0.0,0.0,0.0,0.0,0.0,0.0,0.0,0.0,0.0,0.0,0.0,0.0,0.0,0.0,0.0,0.0,0.0,0.0,0.0,0.0,0.0,0.0,0.0,0.0,0.0,0.0,0.0,0.0,0.0,0.0,0.0,0.0,0.0,0.0,0.0,0.0,0.0,0.0,0.0,0.0,0.0,0.0,0.0,0.0,0.0,0.0,0.0,0.0,0.0,0.0,0.0,0.0,0.0,0.0,0.0,0.0,0.0,0.0,0.0,0.0,0.0,0.0,0.0,0.0,0.0,0.0,0.0,0.0,0.0,0.0,0.0,0.0,0.0,0.0,0.0,0.0,0.0,0.0,0.0,0.0,0.0,0.0,0.0,0.0,0.0,0.0,0.0,0.0,0.0,0.0,0.0,0.0,0.0,0.0,0.0,0.0,0.0,0.0,0.0,0.0,0.0,0.0,0.0,0.0,0.0,0.0,0.0,0.0,0.0,0.0,0.0,0.0,0.0,0.0,0.0,0.0,0.0,0.0,0.0,0.0,0.0,0.0,0.0,0.0,0.0,0.0,0.0,0.0,0.0,0.0,0.0,0.0,0.0,0.0,0.0,0.0,0.0,0.0,0.0,0.0,0.0,0.0,0.0,0.0,0.0,0.0,0.0,0.0,0.0,0.0,0.0,0.0,0.0,0.0,0.0,0.0,0.0,0.0,0.0,0.0,0.0,0.0,0.0,0.0,0.0,0.0,0.0,0.0,0.0,0.0,0.0,0.0,0.0,0.0,0.0,0.0,0.0,0.0,0.0,0.0,0.0,0.0,0.0,0.0,0.0,0.0,0.0,0.0,0.0,0.0,0.0,0.0,0.0,0.0,0.0,0.0,0.0,0.0,0.0,0.0,0.0,0.0,0.0,0.0,0.0,0.0,0.0,0.0,0.0,0.0,0.0,0.0,0.0,0.0,0.0,0.0,0.0,0.0,0.0,0.0,0.0,0.0,0.0,0.0,0.0,0.0,0.0,0.0,0.0,0.0,0.0,0.0,0.0,0.0,0.0,0.0,0.0,0.0,0.0,0.0,0.0,0.0,0.0,0.0,0.0,0.0,0.0,0.0,0.0,0.0,0.0,0.0,0.0,0.0,0.0,0.0,0.0,0.0,0.0,0.0,0.0,0.0,0.0,0.0,0.0,0.0,0.0,0.0,0.0,0.0,0.0,0.0,0.0,0.0,0.0,0.0,0.0,0.0,0.0,0.0,0.0,0.0,0.0,0.0,0.0,0.0,0.0,0.0,0.0,0.0,0.0,0.0,0.0,0.0,0.0,0.0,0.0,0.0,0.0,0.0,0.0,0.0,0.0,0.0,0.0,0.0,0.0,0.0,0.0,0.0,0.0,0.0,0.0,0.0,0.0,0.0,0.0,0.0,0.0,0.0,0.0,0.0,0.0,0.0,0.0,0.0,0.0,0.0,0.0,0.0,0.0,0.0,0.0,0.0,0.0,0.0,0.0,0.0,0.0,0.0,0.0,0.0,0.0,0.0,0.0,0.0,0.0,0.0,0.0,0.0,0.0,0.0,0.0,0.0,0.0,0.0,0.0,0.0,0.0,0.0,0.0,0.0,0.0,0.0,0.0,0.0,0.0,0.0,0.0,0.0,0.0,0.0,0.0,0.0,0.0,0.0,0.0,0.0,0.0,0.0,0.0,0.0,0.0,0.0,0.0,0.0,0.0,0.0,0.0,0.0,0.0,0.0,0.0,0.0,0.0,0.0,0.0,0.0,0.0,0.0,0.0,0.0,0.0,0.0,0.0,0.0,0.0,0.0,0.0,0.0,0.0,0.0,0.0,0.0,0.0,0.0,0.0,0.0,0.0,0.0,0.0,0.0,0.0,0.0,0.0,0.0,0.0,0.0,0.0,0.0,0.0,0.0,0.0,0.0,0.0,0.0,0.0,0.0,0.0,0.0,0.0,0.0,0.0,0.0,0.0,0.0,0.0,0.0,0.0,0.0,0.0,0.0,0.0,0.0,0.0,0.0,0.0,0.0,0.0,0.0,0.0,0.0,0.0,0.0,0.0,0.0,0.0,0.0,0.0,0.0,0.0,0.0,0.0,0.0,0.0,0.0,0.0,0.0,0.0,0.0,0.0,0.0,0.0,0.0,0.0,0.0,0.0,0.0,0.0,0.0,0.0,0.0,0.0,0.0,0.0,0.0,0.0,0.0,0.0,0.0,0.0,0.0,0.0,0.0,0.0,0.0,0.0,0.0,0.0,0.0,0.0,0.0,0.0,0.0,0.0,0.0,0.0,0.0,0.0,0.0,0.0,0.0,0.0,0.0,0.0,0.0,0.0,0.0,0.0,0.0,0.0,0.0,0.0,0.0,0.0,0.0,0.0,0.0,0.0,0.0,0.0,0.0,0.0,0.0,0.0,0.0,0.0,0.0,0.0,0.0,0.0,0.0,0.0,0.0,0.0,0.0,0.0,0.0,0.0,0.0,0.0,0.0,0.0,0.0,0.0,0.0,0.0,0.0,0.0,0.0,0.0,0.0,0.0,0.0,0.0,0.0,0.0,0.0,0.0,0.0,0.0,0.0,0.0,0.0,0.0,0.0,0.0,0.0,0.0,0.0,0.0,0.0,0.0,0.0,0.0,0.0,0.0,0.0,0.0,0.0,0.0,0.0,0.0,0.0,0.0,0.0,0.0,0.0,0.0,0.0,0.0,0.0,0.0,0.0,0.0,0.0,0.0,0.0,0.0,0.0,0.0,0.0,0.0,0.0,0.0,0.0,0.0,0.0,0.0,0.0,0.0,0.0,0.0,0.0131,0.0,0.0,0.0,0.0,0.0,0.0,0.0,0.0,0.0,0.0,0.0,0.0,0.0,0.0,0.0,0.0,0.0,0.0,0.0,0.0,0.0,0.0,0.0,0.0,0.0,0.0,0.0,0.0,0.0,0.0,0.0,0.0,0.0,0.0,0.0,0.0,0.0,0.0,0.0,0.0,0.0,0.0,0.0,0.0,0.0,0.0,0.0,0.0,0.0,0.0,0.0,0.0,0.0,0.0,0.0,0.0,0.0,0.0,0.0,0.0,0.0,0.0,0.0,0.0,0.0,0.0,0.0,0.0,0.0,0.0,0.0,0.0,0.0,0.0,0.0,0.0,0.0,0.0,0.0,0.0,0.0,0.0,0.0,0.0,0.0,0.0,0.0,0.0,0.0,0.0,0.0,0.0,0.0,0.0,0.0,0.0,0.0,0.0,0.0,0.0,0.0,0.0,0.0,0.0,0.0,0.0,0.0,0.0,0.0,0.0,0.0,0.0132,0.0479,0.0,0.0,0.0,0.0,0.0,0.0,0.0,0.0,0.0,0.0,0.0,0.0,0.0,0.0,0.0,0.0,0.0,0.0,0.0,0.0,0.0,0.0,0.0,0.0,0.0,0.0,0.0,0.0,0.0,0.0,0.0,0.0,0.0,0.0,0.0,0.0,0.0,0.0,0.0,0.0,0.0,0.0,0.0,0.0,0.0,0.0,0.0,0.0,0.0,0.0,0.0,0.0,0.0,0.0,0.0,0.0,0.0,0.0,0.0,0.0,0.0,0.0,0.0,0.0,0.0,0.0,0.0,0.0,0.0,0.0,0.0,0.0,0.0,0.0,0.0,0.0,0.0,0.0,0.0,0.0,0.0,0.0,0.0,0.0,0.0,0.0,0.0,0.0,0.0,0.0,0.0,0.0,0.0,0.0,0.0,0.0,0.0,0.0,0.0,0.0,0.0,0.0,0.0,0.0,0.0,0.0,0.0,0.0,0.0,0.0,0.0,0.0,0.0,0.0,0.0,0.0,0.0,0.0,0.0,0.0,0.0,0.0,0.0,0.0,0.0,0.0,0.0,0.0,0.0,0.0,0.0,0.0,0.0,0.0,0.0,0.0,0.0,0.0,0.0,0.0,0.0,0.0,0.0,0.0,0.0,0.0,0.0,0.0,0.0,0.0,0.0,0.0,0.0,0.0,0.0,0.0,0.0,0.0,0.0,0.0,0.0,0.0,0.0,0.0,0.0,0.0,0.0,0.0,0.0,0.0,0.0,0.0,0.0,0.0,0.0,0.0,0.0,0.0,0.0,0.0,0.0,0.0,0.0,0.0,0.0,0.0,0.0,0.0,0.0,0.0,0.0,0.0,0.0,0.0,0.0,0.0,0.0,0.0,0.0,0.0,0.0,0.0,0.0,0.0,0.0,0.0,0.0,0.0,0.0,0.0,0.0,0.0,0.0,0.0,0.0,0.0,0.0,0.0,0.0,0.0,0.0,0.0,0.0,0.0,0.0,0.0,0.0,0.0,0.0,0.0,0.0,0.0,0.0,0.0,0.0,0.0,0.0,0.0,0.0,0.0,0.0,0.0,0.0,0.0,0.0,0.0,0.0,0.0,0.0,0.0,0.0,0.0,0.0,0.0,0.0,0.0,0.0,0.0,0.0,0.0,0.0,0.0,0.0,0.0,0.0,0.0,0.0,0.0,0.0,0.0,0.0,0.0,0.0,0.0,0.0,0.0,0.0,0.0,0.0,0.0,0.0,0.0,0.0,0.0,0.0,0.0,0.0,0.0,0.0,0.0,0.0,0.0,0.0,0.0,0.0,0.0,0.0,0.0,0.0,0.0,0.0,0.0,0.0,0.0,0.0,0.0,0.0,0.0,0.0,0.0,0.0,0.0,0.0,0.0,0.0,0.0,0.0,0.0,0.0,0.0,0.0,0.0,0.0,0.0,0.0,0.0,0.0,0.0,0.0,0.0,0.0,0.0,0.0,0.0,0.0,0.0,0.0,0.0,0.0,0.0723,0.1074,0.0,0.0,0.0,0.0,0.0,0.0,0.0,0.0,0.0,0.0,0.0,0.0,0.0,0.0,0.0,0.0,0.0,0.0,0.0,0.0,0.0,0.0,0.0,0.0,0.0,0.0,0.0,0.0,0.0,0.0,0.0,0.0,0.0,0.0,0.0,0.0,0.0,0.0,0.0,0.0,0.0,0.0,0.0,0.0,0.0,0.0,0.0,0.0,0.0,0.0,0.0,0.0,0.0,0.0,0.0,0.0,0.0,0.0,0.0,0.0,0.0,0.0,0.0,0.0,0.0,0.0,0.0,0.0,0.0,0.0,0.0,0.0,0.0,0.0,0.0,0.0,0.0,0.0,0.0,0.0,0.0,0.0,0.0,0.0,0.0,0.0,0.0,0.0,0.0,0.0,0.0,0.0,0.0,0.0,0.0,0.0,0.0,0.0,0.0,0.0,0.0,0.0,0.0,0.0,0.0,0.0,0.0,0.0,0.0,0.0,0.0,0.0617,0.0,0.0,0.0,0.0,0.0,0.0,0.0,0.0,0.0,0.0,0.0,0.0,0.0,0.0,0.0,0.0,0.0,0.0,0.0,0.0,0.0,0.0,0.0,0.0,0.0,0.0,0.0,0.0,0.0,0.0,0.0,0.0,0.0,0.0,0.0,0.0,0.0,0.0,0.0,0.0,0.0,0.0,0.0,0.0,0.0,0.0,0.0,0.0,0.0,0.0,0.0,0.0,0.0,0.0,0.0,0.0,0.0,0.0,0.0,0.0,0.0,0.0,0.0,0.0,0.0,0.0,0.0,0.0,0.0,0.0,0.0,0.0,0.0,0.0,0.0,0.0,0.0,0.0,0.0,0.0,0.0,0.0,0.0,0.0,0.0,0.0,0.0,0.0,0.0,0.0,0.0,0.0,0.0,0.0,0.0,0.0,0.0,0.0,0.0,0.0,0.0,0.0,0.0,0.0,0.0,0.0,0.0,0.0,0.0,0.0,0.0,0.0132,0.0,0.0,0.0,0.0,0.0,0.0,0.0,0.0,0.0,0.0,0.0,0.0,0.0,0.0,0.0,0.0,0.0,0.0,0.0,0.0,0.0,0.0,0.0,0.0,0.0,0.0,0.0,0.0,0.0,0.0,0.0,0.0,0.0,0.0,0.0,0.0,0.0,0.0,0.0,0.0,0.0,0.0,0.0,0.0,0.0,0.0,0.0,0.0,0.0,0.0,0.0,0.0,0.0,0.0,0.0,0.0,0.0,0.0,0.0,0.0,0.0,0.0,0.0,0.0,0.0,0.0,0.0,0.0,0.0,0.0,0.0,0.0,0.0,0.0,0.0,0.0,0.0,0.0,0.0,0.0,0.0,0.0,0.0,0.0,0.0,0.0,0.0,0.0,0.0,0.0,0.0,0.0,0.0,0.0,0.0,0.0,0.0,0.0,0.0,0.0,0.0,0.0,0.0,0.0,0.0,0.0,0.0,0.0,0.0,0.0,0.0,0.0,0.0,0.0,0.0,0.0,0.0,0.0,0.0,0.0,0.0,0.0,0.0,0.0,0.0,0.0,0.0,0.0,0.0,0.0,0.0,0.0,0.0,0.0,0.0,0.0,0.0,0.0,0.0,0.0,0.0,0.0,0.0,0.0,0.0,0.0,0.0,0.0,0.0,0.0,0.0,0.0,0.0,0.0,0.0,0.0,0.0,0.0,0.0,0.0,0.0,0.0,0.0,0.0,0.0,0.0,0.0,0.0,0.0,0.0,0.0,0.0,0.0,0.0,0.0,0.0,0.0,0.0,0.0,0.0,0.0,0.0,0.0,0.0,0.0,0.0,0.0,0.0,0.0,0.0,0.0,0.0,0.0,0.0,0.0,0.0,0.0,0.0,0.0,0.0,0.0,0.0,0.0,0.0,0.0,0.0,0.0,0.0,0.0,0.0,0.0,0.0,0.0,0.0,0.0,0.0,0.0,0.0,0.0,0.0,0.0,0.0,0.0,0.0,0.0,0.0,0.0,0.0,0.0,0.0,0.0,0.0,0.0,0.0,0.0,0.0,0.0,0.0,0.0,0.0,0.0,0.0,0.0,0.0,0.0,0.0,0.0,0.0,0.0,0.0,0.0,0.0,0.0,0.0,0.0,0.0,0.0,0.0,0.0,0.0,0.0,0.0,0.0,0.0,0.0,0.0,0.0,0.0,0.0,0.0,0.0,0.0,0.0,0.0,0.0,0.0,0.0,0.0,0.0,0.0,0.0,0.0,0.0,0.0,0.0,0.0,0.0,0.0,0.0,0.0,0.0,0.0,0.0,0.0,0.0,0.0,0.0,0.0,0.0,0.0,0.0,0.0,0.0,0.0,0.0,0.0,0.0,0.0,0.0,0.0,0.0,0.0,0.0,0.0,0.0,0.0,0.0,0.0,0.0,0.0,0.0,0.0,0.0,0.0,0.0,0.0,0.0,0.0,0.0,0.0,0.0,0.0,0.0,0.0,0.0,0.0,0.0,0.0,0.0,0.0,0.0,0.0,0.0,0.0,0.0,0.0,0.0,0.0,0.0,0.0,0.0,0.0,0.0,0.0,0.0,0.0,0.0,0.0,0.0,0.0,0.0,0.0,0.0,0.0,0.0,0.0,0.0,0.0,0.0,0.0,0.0,0.0,0.0,0.0,0.0,0.0,0.0,0.0,0.0,0.0,0.0,0.0,0.0,0.0,0.0,0.0,0.0,0.0,0.0,0.0,0.0,0.0,0.0,0.0,0.0,0.0,0.0,0.0,0.0,0.0,0.0,0.0,0.0,0.0,0.0,0.0,0.0,0.0,0.0,0.0,0.0,0.0,0.0,0.0,0.0,0.0,0.0,0.0,0.0,0.0,0.0,0.0,0.0,0.0,0.0,0.0,0.0,0.0,0.0,0.0,0.0,0.0,0.0,0.0,0.0,0.0,0.0,0.0,0.0,0.0,0.0,0.0,0.0,0.0,0.0,0.0,0.0,0.0,0.0,0.0,0.0,0.0,0.0,0.0,0.0,0.0,0.0,0.0,0.0,0.0,0.0,0.0,0.0,0.0,0.0,0.0,0.0,0.0,0.0,0.0,0.0,0.0,0.0,0.0,0.0,0.0,0.0,0.0,0.0,0.0,0.0,0.0,0.0,0.0,0.0,0.0,0.0,0.0,0.0,0.0,0.0,0.0,0.0,0.0,0.0,0.0,0.0,0.0,0.0,0.0,0.0,0.0,0.0,0.0,0.0,0.0,0.0,0.0,0.0,0.0,0.0,0.0,0.0,0.0,0.0,0.0,0.0,0.0,0.0,0.0,0.0,0.0,0.0,0.0,0.0,0.0,0.0,0.0,0.0,0.0,0.0,0.0,0.0,0.0,0.0,0.0,0.0,0.0,0.0,0.0,0.0,0.0,0.0,0.0,0.0,0.0,0.0,0.0,0.0,0.0,0.0,0.0,0.0,0.0,0.0,0.0,0.0,0.0,0.0,0.0,0.0,0.0,0.0,0.0,0.0,0.0,0.0,0.0,0.0,0.0,0.0,0.0,0.0,0.0,0.0,0.0,0.0,0.0,0.0,0.0,0.0,0.0,0.0,0.0,0.0,0.0,0.0,0.0,0.0,0.0,0.0,0.0,0.0,0.0,0.0,0.0,0.0,0.0,0.0,0.0,0.0,0.0,0.0,0.0,0.0,0.0,0.0,0.0,0.0,0.0,0.0,0.0,0.0,0.0,0.0,0.0,0.0,0.0,0.0,0.0,0.0,0.0,0.0,0.0,0.0,0.0,0.0,0.0,0.0,0.0,0.0,0.0,0.0,0.0,0.0,0.0,0.0,0.0,0.0,0.0,0.0,0.0,0.0,0.0,0.0,0.0,0.0,0.0,0.0,0.0,0.0,0.0,0.0,0.0,0.0,0.0,0.0,0.0,0.0,0.0,0.0,0.0,0.0,0.0,0.0,0.0,0.0,0.0,0.0,0.0,0.0,0.0,0.0,0.0,0.0,0.0,0.0,0.0,0.0,0.0,0.0,0.0,0.0,0.0,0.0,0.0,0.0,0.0,0.0,0.0,0.0,0.0,0.0,0.0,0.0,0.0,0.0,0.0,0.0,0.0,0.0,0.0,0.0,0.0,0.0,0.0,0.0,0.0,0.0,0.0,0.0,0.0,0.0,0.0,0.0,0.0,0.0,0.0,0.0,0.0,0.0,0.0,0.0,0.0,0.0,0.0,0.0,0.0,0.0,0.0,0.0,0.0,0.0,0.0,0.0,0.0,0.0,0.0,0.0,0.0,0.0,0.0,0.0,0.0,0.0,0.0,0.0,0.0,0.0,0.0,0.0,0.0,0.0,0.0,0.0,0.0,0.0,0.0,0.0,0.0,0.0,0.0,0.0,0.0,0.0,0.0,0.0,0.0,0.0,0.0,0.0,0.0,0.0,0.0,0.0,0.0,0.0,0.0,0.0,0.0,0.0,0.0,0.0,0.0,0.0,0.0,0.0,0.0,0.0,0.0,0.0,0.0,0.0,0.0,0.0,0.0,0.0,0.0,0.0,0.0,0.0,0.0,0.0,0.0,0.0,0.0,0.0,0.0,0.0,0.0,0.0,0.0,0.0,0.0,0.0,0.0,0.0,0.0,0.0,0.0,0.0,0.0,0.0,0.0,0.0,0.0,0.0,0.0,0.0,0.0,0.0,0.0,0.0,0.0,0.0,0.0,0.0,0.0,0.0,0.0,0.0,0.0,0.0,0.0,0.0,0.0,0.0,0.0,0.0,0.0,0.0,0.0,0.0,0.0,0.0,0.0,0.0,0.0,0.0,0.0,0.0,0.0,0.0,0.0,0.0,0.0,0.0,0.0,0.0,0.0,0.0,0.0,0.0,0.0,0.0,0.0,0.0,0.0,0.0,0.0,0.0,0.0,0.0,0.0,0.0,0.0,0.0,0.0,0.0,0.0,0.0,0.0,0.0,0.0,0.0,0.0,0.0,0.0,0.0,0.0,0.0,0.0,0.0,0.0,0.0,0.0,0.0,0.0,0.0,0.0,0.0,0.0,0.0,0.0,0.0,0.0,0.0,0.0,0.0,0.0,0.0,0.0,0.0,0.0,0.0,0.0,0.0,0.0,0.0,0.0,0.0,0.0,0.0,0.0,0.0,0.0,0.0,0.0,0.0,0.0,0.0,0.0,0.0,0.0,0.0,0.0,0.0,0.0,0.0,0.0,0.0,0.0,0.0,0.0,0.0,0.0,0.0,0.0,0.0,0.0,0.0,0.0,0.0,0.0,0.0,0.0,0.0,0.0,0.0,0.0,0.0,0.0,0.0,0.0,0.0,0.0,0.0,0.0,0.0,0.0,0.0,0.0,0.0,0.0,0.0,0.0,0.0,0.0,0.0,0.0,0.0,0.0,0.0,0.0,0.0,0.0,0.0,0.0,0.0,0.0,0.0,0.0,0.0,0.0,0.0,0.0,0.0,0.0,0.0,0.0,0.0,0.0,0.0,0.0,0.0,0.0,0.0,0.0,0.0,0.0,0.0,0.0,0.0,0.0,0.0,0.0,0.0,0.0,0.0,0.0,0.0,0.0,0.0,0.0,0.0,0.0,0.0,0.0,0.0,0.0,0.0,0.0,0.0,0.0,0.0,0.0,0.0,0.0,0.0,0.0,0.0,0.0,0.0,0.0,0.0,0.0,0.0,0.0,0.0,0.0,0.0,0.0,0.0,0.0,0.0,0.0,0.0,0.0,0.0,0.0,0.0,0.0,0.0,0.0,0.0,0.0,0.0,0.0,0.0,0.0,0.0,0.0,0.0,0.0,0.0,0.0,0.0,0.0,0.0,0.0,0.0,0.0,0.0,0.0,0.0,0.0,0.0,0.0,0.0,0.0,0.0,0.0,0.0,0.0,0.0,0.0,0.0,0.0,0.0,0.0,0.0,0.0,0.0,0.0,0.0,0.0,0.0,0.0,0.0,0.0,0.0,0.0,0.0,0.0,0.0,0.0,0.0,0.0,0.0,0.0,0.0,0.0,0.0,0.0,0.0,0.0,0.0,0.0,0.0,0.0,0.0,0.0,0.0,0.0,0.0,0.0,0.0,0.0,0.0,0.0,0.0,0.0,0.0,0.0,0.0,0.0,0.0,0.0,0.0,0.0,0.0,0.0,0.0,0.0,0.0,0.0,0.0,0.0,0.0,0.0,0.0,0.0,0.0,0.0,0.0,0.0,0.0,0.0,0.0,0.0,0.0,0.0,0.0,0.0,0.0,0.0,0.0,0.0,0.0,0.0,0.0,0.0,0.0,0.0,0.0,0.0,0.0,0.0,0.0,0.0,0.0,0.0,0.0,0.0,0.0,0.0,0.0,0.0,0.0,0.0,0.0,0.0,0.0,0.0,0.0,0.0,0.0,0.0,0.0,0.0,0.0,0.0,0.0,0.0,0.0,0.0,0.0,0.0,0.0,0.0,0.0,0.0,0.0,0.0,0.0,0.0,0.0,0.0,0.0,0.0,0.0,0.0,0.0,0.0,0.0,0.0,0.0,0.0,0.0,0.0,0.0,0.0,0.0,0.0,0.0,0.0,0.0,0.0,0.0,0.0,0.0,0.0,0.0,0.0,0.0,0.0,0.0,0.0,0.0,0.0,0.0,0.0,0.0,0.0,0.0,0.0,0.0,0.0,0.0,0.0,0.0,0.0,0.0,0.0,0.0,0.0,0.0,0.0,0.0,0.0,0.0,0.0,0.0,0.0,0.0,0.0,0.0,0.0,0.0,0.0,0.0,0.0,0.0,0.0,0.0,0.0,0.0,0.0,0.0,0.0,0.0,0.0,0.0,0.0,0.0,0.0,0.0,0.0,0.0,0.0,0.0,0.0,0.0,0.0,0.0,0.0,0.0,0.0,0.0,0.0,0.0,0.0,0.0,0.0,0.0,0.0,0.0,0.0,0.0,0.0,0.0,0.0,0.0,0.0,0.0,0.0,0.0,0.0,0.0,0.0,0.0,0.0,0.0,0.0,0.0,0.0,0.0,0.0,0.0,0.0,0.0,0.0,0.0,0.0,0.0,0.0,0.0,0.0,0.0,0.0,0.0,0.0,0.0,0.0,0.0,0.0,0.0,0.0,0.0,0.0,0.0,0.0,0.0,0.0,0.0,0.0,0.0,0.0,0.0,0.0,0.0,0.0,0.0,0.0,0.0,0.0,0.0,0.0,0.0,0.0,0.0,0.0,0.0,0.0,0.0,0.0,0.0,0.0,0.0,0.0,0.0,0.0,0.0,0.0,0.0,0.0,0.0,0.0,0.0,0.0,0.0,0.0,0.0,0.0,0.0,0.0,0.0,0.0,0.0,0.0,0.0,0.0,0.0,0.0,0.0,0.0,0.0,0.0,0.0,0.0,0.0,0.0,0.0,0.0,0.0,0.0,0.0,0.0,0.0,0.0,0.0,0.0,0.0,0.0,0.0,0.0,0.0,0.0,0.0,0.0,0.0,0.0,0.0,0.0,0.0,0.0,0.0,0.0,0.0,0.0,0.0,0.0,0.0,0.0,0.0,0.0,0.0,0.0,0.0,0.0,0.0,0.0,0.0,0.0,0.0,0.0,0.0,0.0,0.0,0.0,0.0,0.0,0.0,0.0,0.0,0.0,0.0,0.0,0.0,0.0,0.0,0.0,0.0,0.0,0.0,0.0,0.0,0.0,0.0,0.0,0.0,0.0,0.0,0.0,0.0,0.0,0.0,0.0,0.0,0.0,0.0,0.0,0.0,0.0,0.0,0.0,0.0,0.0,0.0,0.0,0.0,0.0,0.0,0.0,0.0,0.0,0.0,0.0,0.0,0.0,0.0,0.0,0.0,0.0,0.0,0.0,0.0,0.0,0.0,0.0,0.0,0.0,0.0,0.0,0.0,0.0,0.0,0.0,0.0,0.0,0.0,0.0,0.0,0.0,0.0,0.0,0.0,0.0,0.0,0.0,0.0,0.0,0.0,0.0,0.0,0.0,0.0,0.0,0.0,0.0,0.0,0.0,0.0,0.0,0.0,0.0,0.0,0.0,0.0,0.0,0.0,0.0,0.0,0.0,0.0,0.0,0.0,0.0,0.0,0.0,0.0,0.0,0.0,0.0,0.0,0.0,0.0,0.0,0.0,0.0,0.0,0.0,0.0,0.0,0.0,0.0,0.0,0.0,0.0,0.0,0.0,0.0,0.0,0.0,0.0,0.0213,0.1065,0.0852,0.0,0.0,0.0,0.0,0.0,0.0,0.0,0.0,0.0,0.0,0.0,0.0,0.0,0.0,0.0,0.0,0.0,0.0,0.0,0.0,0.0,0.0,0.0,0.0,0.0,0.0,0.0,0.0,0.0,0.0,0.0,0.0,0.0,0.0,0.0,0.0,0.0,0.0,0.0,0.0,0.0,0.0,0.0,0.0,0.0,0.0,0.0,0.0,0.0,0.0,0.0,0.0,0.0,0.0,0.0,0.0,0.0,0.0,0.0,0.0,0.0,0.0,0.0,0.0,0.0,0.0,0.0,0.0,0.0,0.0,0.0,0.0,0.0,0.0,0.0,0.0,0.0,0.0,0.0,0.0,0.0,0.0,0.0,0.0,0.0,0.0,0.0,0.0,0.0,0.0,0.0,0.0,0.0,0.0,0.0,0.0,0.0,0.0,0.0,0.0,0.0,0.0,0.0,0.0,0.0,0.0,0.0,0.0,0.0,0.0633,0.4682,0.3395,0.0,0.0,0.0,0.0,0.0,0.0,0.0,0.0,0.0,0.0,0.0,0.0,0.0,0.0,0.0,0.0,0.0,0.0,0.0,0.0,0.0,0.0,0.0,0.0,0.0,0.0,0.0,0.0,0.0,0.0,0.0,0.0,0.0,0.0,0.0,0.0,0.0,0.0,0.0,0.0,0.0,0.0,0.0,0.0,0.0,0.0,0.0,0.0,0.0,0.0,0.0,0.0,0.0,0.0,0.0,0.0,0.0,0.0,0.0,0.0,0.0,0.0,0.0,0.0,0.0,0.0,0.0,0.0,0.0,0.0,0.0,0.0,0.0,0.0,0.0,0.0,0.0,0.0,0.0,0.0,0.0,0.0,0.0,0.0,0.0,0.0,0.0,0.0,0.0,0.0,0.0,0.0,0.0,0.0,0.0,0.0,0.0,0.0,0.0,0.0,0.0,0.0,0.0,0.0,0.0,0.0,0.043,0.2991,0.4044,0.4246,0.4685,0.4467,0.382,0.2554,0.213,0.2344,0.3625,0.3198,0.2126,0.21,0.2956,0.3828,0.2309,0.1045,0.0,0.0,0.0,0.0,0.0,0.0,0.0,0.0,0.0,0.0,0.0,0.0,0.0,0.0,0.0,0.0,0.0,0.0,0.0,0.0,0.0,0.0,0.0,0.0,0.0,0.0,0.0,0.0,0.0,0.0,0.0,0.0,0.0,0.0,0.0,0.0,0.0,0.0,0.0,0.0,0.0,0.0,0.0,0.0,0.0,0.0,0.0,0.0,0.0,0.0,0.0,0.0,0.0,0.0,0.0,0.0,0.0,0.0,0.0,0.0,0.0,0.0,0.0,0.0,0.0,0.0,0.0,0.0,0.0,0.0,0.0,0.0,0.0,0.0,0.0,0.0,0.0,0.0,0.0,0.0,0.1386,0.2064,0.2062,0.1343,0.1113,0.1121,0.1112,0.1108,0.1108,0.1105,0.0659,0.0,0.0648,0.1506,0.2365,0.4916,0.6167,0.6568,0.4879,0.5512,0.6563,0.4879,0.4456,0.467,0.6374,0.5747,0.4255,0.3572,0.5062,0.6367,0.4845,0.2715,0.0828,0.0205,0.0,0.0,0.0,0.0,0.0,0.0,0.0,0.0,0.0,0.0,0.0,0.0,0.0,0.0,0.0,0.0,0.0,0.0,0.0,0.0,0.0,0.0,0.0,0.0,0.0,0.0,0.0,0.0,0.0,0.0,0.0,0.0,0.0,0.0,0.0,0.0,0.0,0.0,0.0,0.0,0.0,0.0,0.0,0.0,0.0,0.0,0.0,0.0,0.0,0.0,0.0,0.0,0.0,0.0,0.0,0.0,0.0,0.0,0.0,0.0,0.0,0.0,0.0,0.0,0.0,0.0,0.0,0.0,0.0,0.0,0.0,0.0,0.0,0.0,0.0,0.0,0.0,0.0,0.4809,0.7051,0.7051,0.4691,0.3562,0.3589,0.3558,0.3544,0.3319,0.3294,0.1959,0.0216,0.2566,0.4691,0.6405,0.4263,0.4849,0.666,0.6717,0.6698,0.687,0.6717,0.6736,0.6733,0.6733,0.6777,0.6374,0.3964,0.5015,0.6736,0.6523,0.4806,0.2692,0.041,0.0,0.0,0.0,0.0,0.0,0.0,0.0,0.0,0.0,0.0,0.0,0.0,0.0,0.0,0.0,0.0,0.0,0.0,0.0,0.0,0.0,0.0,0.0,0.0,0.0,0.0,0.0,0.0,0.0,0.0,0.0,0.0,0.0,0.0,0.0,0.0,0.0,0.0,0.0,0.0,0.0,0.0,0.0,0.0,0.0,0.0,0.0,0.0,0.0,0.0,0.0,0.0,0.0,0.0,0.0,0.0,0.0,0.0,0.0,0.0,0.0,0.0,0.0,0.0,0.0,0.0,0.0,0.0,0.0,0.0,0.0,0.0,0.0,0.0,0.0,0.326,0.485,0.4619,0.4515,0.5362,0.693,0.6367,0.591,0.5956,0.5938,0.5915,0.588,0.5864,0.5394,0.4494,0.3625,0.4672,0.6552,0.5916,0.6105,0.6703,0.6676,0.6684,0.6706,0.6722,0.67,0.6668,0.6668,0.6711,0.6552,0.5919,0.6115,0.6719,0.6681,0.6004,0.5333,0.4677,0.2225,0.0,0.0,0.0,0.0,0.0,0.0,0.0,0.0,0.0,0.0,0.0,0.0,0.0,0.0,0.0,0.0,0.0,0.0,0.0,0.0,0.0,0.0,0.0,0.0,0.0,0.0,0.0,0.0,0.0,0.0,0.0,0.0,0.0,0.0,0.0,0.0,0.0,0.0,0.0,0.0,0.0,0.0,0.0,0.0,0.0,0.0,0.0,0.0,0.0,0.0,0.0,0.0,0.0,0.0,0.0,0.0,0.0,0.0,0.0,0.0,0.0,0.0,0.0,0.0,0.0,0.0,0.0,0.0,0.0,0.0,0.0,0.0,0.0,0.0,0.4864,0.712,0.6842,0.5403,0.5564,0.7055,0.7006,0.6989,0.7006,0.7027,0.6992,0.0,0.6962,0.6932,0.6642,0.5353,0.555,0.6793,0.6747,0.673,0.6719,0.6635,0.666,0.6722,0.67,0.6668,0.6632,0.6611,0.6632,0.6681,0.6766,0.6741,0.6684,0.6649,0.6597,0.654,0.6482,0.4444,0.2019,0.0404,0.0,0.0,0.0,0.0,0.0,0.0,0.0,0.0,0.0,0.2842,0.4806,0.4806,0.3344,0.2331,0.2331,0.2324,0.1733,0.0191,0.0,0.0,0.0,0.0,0.0,0.0,0.0,0.0,0.0,0.0,0.0,0.0,0.0,0.0,0.0,0.0,0.0,0.0,0.0,0.0,0.0,0.0,0.0,0.0,0.0,0.0,0.0,0.0,0.0,0.0,0.0,0.0,0.0,0.0,0.0,0.0,0.0,0.0,0.0,0.0,0.0,0.0,0.0,0.0,0.0,0.0,0.0,0.0,0.0,0.0235,0.0465,0.0465,0.0465,0.0465,0.4841,0.7059,0.6732,0.7003,0.7161,0.6989,0.7049,0.7049,0.6992,0.7049,0.7006,0.6918,0.7027,0.7006,0.6897,0.6899,0.6894,0.6869,0.676,0.6719,0.6703,0.6597,0.6632,0.6717,0.6651,0.6632,0.6624,0.6564,0.6548,0.6575,0.669,0.6676,0.663,0.663,0.6589,0.6531,0.648,0.6469,0.5253,0.1212,0.0202,0.0,0.0,0.0,0.0205,0.0819,0.0825,0.0827,0.041,0.7313,1.2558,1.2765,0.9134,0.6463,0.6463,0.66,0.4996,0.1142,0.0381,0.0,0.0,0.0,0.0,0.0,0.0,0.0,0.0,0.0,0.0,0.0,0.0,0.0,0.0,0.0,0.0,0.0,0.0,0.0,0.0,0.0,0.0,0.0,0.0,0.0,0.0,0.0,0.0,0.0,0.0,0.0,0.0,0.0,0.0,0.0,0.0,0.0,0.0,0.0,0.0,0.0,0.0,0.0,0.0,0.0,0.0,0.0,0.0,0.1628,0.5077,0.5243,0.5243,0.554,0.6513,0.6874,0.6887,0.7076,0.6992,0.6861,0.6924,0.6943,0.6929,0.6897,0.6891,0.691,0.694,0.688,0.6774,0.682,0.6755,0.6638,0.6651,0.6657,0.6654,0.6624,0.6665,0.6709,0.6605,0.66,0.6616,0.6512,0.6515,0.6567,0.6638,0.6616,0.6572,0.6572,0.6529,0.648,0.6466,0.5251,0.424,0.4849,0.2423,0.0,0.0,0.0,0.2049,0.8822,0.9873,0.8815,0.5466,0.662,0.9189,1.2421,1.1885,1.1002,1.0801,1.0708,1.0408,0.9349,0.3616,0.0,0.0,0.0,0.0,0.0,0.0,0.0,0.0,0.0,0.0,0.0,0.0,0.0,0.0,0.0,0.0,0.0,0.0,0.0,0.0,0.0,0.0,0.0,0.0,0.0,0.0,0.0,0.0,0.0,0.0,0.0,0.0,0.0,0.0,0.0,0.0,0.0,0.0,0.0,0.0,0.0,0.0,0.0,0.0,0.0,0.0,0.0,0.0,0.2074,0.6609,0.6719,0.693,0.7017,0.6861,0.6795,0.6829,0.7041,0.6992,0.6902,0.6965,0.6962,0.6908,0.6902,0.6872,0.6828,0.6886,0.6853,0.6771,0.6804,0.6777,0.6714,0.6687,0.7318,0.8166,0.81,0.8928,0.9565,0.9436,0.9424,0.9436,0.9504,0.95,0.8948,0.7193,0.6556,0.6518,0.6545,0.7518,0.8273,0.7673,0.6852,0.6447,0.7904,0.5455,0.3024,0.3037,0.284,0.447,0.9158,1.1619,1.2196,0.9636,0.9408,1.0193,1.2561,1.2694,1.2623,1.2374,1.2262,1.2335,1.2227,0.8182,0.3995,0.0191,0.0,0.0,0.0,0.0,0.0,0.0,0.0,0.0,0.0,0.0,0.0,0.0,0.0,0.0,0.0,0.0,0.0,0.0,0.0,0.0,0.0,0.0,0.0,0.0,0.0,0.0,0.0,0.0,0.0,0.0,0.0,0.0,0.0,0.0,0.0,0.0,0.0,0.0,0.0,0.0,0.0,0.0,0.0,0.0,0.0,0.0,0.1822,0.6057,0.6172,0.6355,0.6835,0.6782,0.6981,0.7,0.7049,0.7049,0.7,0.7055,0.7014,0.691,0.6954,0.6883,0.6749,0.7289,0.7081,0.6804,0.7237,0.7263,0.7281,0.7179,0.8647,1.0787,1.0626,1.1587,1.3194,1.2872,1.284,1.2813,1.2895,1.2863,1.2084,0.8546,0.7509,0.7478,0.7537,0.933,1.0886,0.9886,0.9857,1.0462,1.1378,0.9706,0.7854,0.7506,0.7481,0.7449,0.7449,1.0489,1.2906,1.2808,1.2863,1.2873,1.2968,1.271,1.2645,1.2547,1.2411,1.2292,1.2199,1.2194,0.9324,0.2281,0.0761,0.0,0.0,0.0,0.0,0.0,0.0,0.0,0.0,0.0,0.0,0.0,0.0,0.0,0.0,0.0,0.0,0.0,0.0,0.0,0.0,0.0,0.0,0.0,0.0,0.0,0.0,0.0,0.0,0.0,0.0,0.0,0.0,0.0,0.0,0.0,0.0,0.0,0.0,0.0,0.0,0.0,0.0,0.0,0.0,0.0,0.1121,0.3773,0.3929,0.4745,0.6861,0.685,0.6897,0.7,0.7006,0.7006,0.7,0.7006,0.6976,0.6908,0.6864,0.6828,0.7022,0.9011,0.8539,0.6954,0.8904,0.9694,0.9588,0.9627,1.1113,1.3,1.2756,1.2885,1.2984,1.2872,1.284,1.2813,1.2895,1.2863,1.2663,1.2084,1.1874,1.1869,1.1884,1.2279,1.2868,1.3695,1.3273,1.3478,1.7013,1.6405,1.4355,1.2326,1.1919,1.1914,1.1904,1.2511,1.2906,1.2873,1.2884,1.2884,1.2868,1.2689,1.2553,1.2536,1.2335,1.2194,1.2178,1.2178,1.161,1.0469,0.3801,0.0,0.0,0.0,0.0,0.0,0.0,0.0,0.0,0.0,0.0,0.0,0.0,0.0,0.0,0.0,0.0,0.0,0.0,0.0,0.0,0.0,0.0,0.0,0.0,0.0,0.0,0.0,0.0,0.0,0.0,0.0,0.0,0.0,0.0,0.0,0.0,0.0,0.0,0.0,0.0,0.0,0.0,0.0,0.0,0.2234,0.4193,0.5252,0.5182,0.5779,0.6823,0.682,0.6878,0.7,0.7036,0.7063,0.709,0.8375,0.8107,0.6954,0.0,0.8734,0.8661,0.9745,1.0349,1.0487,1.1573,1.1987,1.2161,1.3187,1.4428,1.5446,1.6326,1.6632,1.655,1.6405,1.6357,1.635,1.6275,1.6453,1.6453,1.6453,1.4707,1.2939,1.2873,1.3907,1.475,1.4694,1.5466,1.6693,1.8252,1.7399,1.5951,1.4994,1.3753,1.2912,1.2901,1.2901,1.2895,1.289,1.289,1.2863,1.2797,1.2694,1.258,1.2449,1.2335,1.2243,1.2178,1.2172,1.2178,1.2199,0.6654,0.2258,0.0,0.0,0.0,0.0,0.0,0.0,0.0,0.0,0.0,0.0,0.0,0.0,0.0,0.0,0.0,0.0,0.0,0.0,0.0,0.0,0.0,0.0,0.0,0.0,0.0,0.0,0.0,0.0,0.0,0.0,0.0,0.0,0.0,0.0,0.0,0.0,0.0,0.0,0.0,0.0,0.0,0.0,0.0,0.4415,0.6758,0.6726,0.6867,0.6818,0.6801,0.6826,0.6886,0.6978,0.7014,0.7283,0.8021,0.9686,0.9821,0.8682,1.033,1.1055,1.0896,1.154,1.2375,1.3603,1.4019,1.4284,1.4575,1.6802,1.7583,1.7725,1.9119,1.9613,1.9549,1.9378,1.9321,1.9313,1.9272,1.9256,1.9264,1.9305,1.6992,1.4623,1.4525,1.581,1.6897,1.5944,1.7481,1.9099,1.8421,1.712,1.6056,1.6212,1.4349,1.289,1.289,1.289,1.289,1.289,1.289,1.2852,1.2759,1.27,1.2596,1.2417,1.2346,1.2275,1.2178,1.2172,1.2178,1.2194,0.9303,0.6011,0.295,0.1105,0.0,0.0,0.0,0.0,0.0,0.0,0.0,0.0,0.0,0.0,0.0,0.0,0.0,0.0,0.0,0.0,0.0,0.0,0.0,0.0,0.0,0.0,0.0,0.0,0.0,0.0,0.0,0.0,0.0,0.0,0.0,0.0,0.0,0.0,0.0,0.0,0.0,0.0,0.0,0.0,0.0,0.4387,0.6734,0.6779,0.6886,0.6796,0.6736,0.6845,0.6908,0.6913,0.6861,0.7969,1.0264,1.0306,1.128,1.318,1.338,1.3305,1.3406,1.561,1.5167,1.3598,1.5679,1.6513,1.6748,1.9191,1.9991,1.9854,2.0036,1.9914,1.9735,1.9557,1.9492,1.9467,1.9305,1.9256,1.9297,1.9451,1.93,1.9099,1.9091,1.9227,1.9517,1.9131,1.9171,1.9264,1.9272,1.7356,1.5906,1.6056,1.4283,1.289,1.289,1.289,1.289,1.289,1.289,1.2884,1.2873,1.2683,1.2542,1.2526,1.2319,1.2183,1.2172,1.2172,1.2172,1.2172,1.1705,1.1377,1.1367,0.4011,0.0,0.0,0.0,0.0,0.0,0.0,0.0,0.0,0.0,0.0,0.0,0.0,0.0,0.0,0.0,0.0,0.0,0.0,0.0,0.0,0.0,0.0,0.0,0.0,0.0,0.0,0.0,0.0,0.0,0.0,0.0,0.0,0.0,0.0,0.0,0.0,0.0,0.0,0.0,0.0,0.0,0.1728,0.3863,0.6676,0.6848,0.6793,0.6728,0.6809,0.6834,0.6796,0.8382,0.954,1.0465,1.3119,1.4108,1.3673,1.4994,1.5522,1.5471,1.6267,1.6838,1.7419,1.835,1.8808,1.8816,1.9927,2.0125,2.0052,1.9938,1.9776,1.9605,1.9532,1.9443,1.9345,1.9281,1.9256,1.9272,1.9337,1.9516,1.9654,1.954,1.9565,1.9573,1.9394,1.9305,1.9256,1.9256,1.7613,1.6001,1.6056,1.4277,1.289,1.289,1.289,1.289,1.289,1.289,1.2857,1.2781,1.2634,1.2504,1.2433,1.227,1.2172,1.2172,1.2172,1.2172,1.2172,1.2063,1.1938,1.1808,0.6756,0.2524,0.0,0.0,0.0,0.0,0.0,0.0,0.0,0.0,0.0,0.0,0.0,0.0,0.0,0.0,0.0,0.0,0.0,0.0,0.0,0.0,0.0,0.0,0.0,0.0,0.0,0.0,0.0,0.0,0.0,0.0,0.0,0.0,0.0,0.0,0.0,0.0,0.0,0.0,0.0,0.0,0.0,0.1702,0.5519,0.6369,0.6766,0.6698,0.6739,0.7168,0.777,1.022,1.1397,1.1451,1.5139,1.6348,1.5741,1.7176,1.7682,1.7682,1.7624,1.8398,1.9808,1.9995,2.0028,1.9995,2.0101,2.015,2.0125,2.0003,1.9873,1.9752,1.9638,1.9524,1.9402,1.9297,1.9256,1.9272,1.9321,1.9516,1.9687,1.9613,1.9678,1.9711,1.9484,1.9386,1.9321,1.8877,1.7422,1.6008,1.5658,1.4077,1.289,1.289,1.289,1.289,1.289,1.289,1.2857,1.2776,1.2629,1.2477,1.2314,1.2221,1.2172,1.2172,1.2172,1.2172,1.2172,1.2058,1.1944,1.1667,0.9126,0.5403,0.0178,0.0,0.0,0.0,0.0,0.0,0.0,0.0,0.0,0.0,0.0,0.0,0.0,0.0,0.0,0.0,0.0,0.0,0.0,0.0,0.0,0.0,0.0,0.0,0.0,0.0,0.0,0.0,0.0,0.0,0.0,0.0,0.0,0.0,0.0,0.0,0.0,0.0,0.0,0.0,0.0,0.1061,0.3153,0.5468,0.67,0.6635,0.6635,0.7698,1.0057,1.2235,1.3336,1.3774,1.5802,1.7814,2.0052,1.9865,1.9792,1.9808,1.9987,1.9955,1.9808,1.9987,1.9946,1.9833,2.0182,2.0312,2.032,2.0312,2.0312,2.0255,1.9906,1.9784,1.9719,1.9362,1.9256,1.9297,1.9459,1.9508,1.9557,1.9735,2.0044,2.0223,1.9873,1.9646,1.906,1.7901,1.675,1.5499,1.4651,1.3684,1.289,1.289,1.289,1.289,1.289,1.289,1.2884,1.2884,1.2683,1.2444,1.2199,1.2172,1.2172,1.2172,1.2172,1.2172,1.2172,1.2058,1.1944,1.1667,1.1629,0.7855,0.0176,0.0,0.0,0.0,0.0,0.0,0.0,0.0,0.0,0.0,0.0,0.0,0.0,0.0,0.0,0.0,0.0,0.0,0.0,0.0,0.0,0.0,0.0,0.0,0.0,0.0,0.0,0.0,0.0,0.0,0.0,0.0,0.0,0.0,0.0,0.0,0.0,0.0,0.0,0.0,0.2949,0.4192,0.3152,0.5435,0.664,0.6578,0.8053,0.909,0.9873,1.3598,1.557,1.5944,1.7822,1.9198,1.9865,1.9817,1.9792,1.9784,1.9711,1.9646,1.9597,1.9654,1.9727,1.98,1.9906,2.0028,2.0125,1.9995,1.9857,1.9735,1.963,1.9516,1.9394,1.9289,1.9058,1.8639,1.8576,1.8527,1.829,1.8229,1.8667,1.886,1.9049,1.8259,1.7518,1.7275,1.6035,1.4825,1.447,1.3684,1.289,1.289,1.289,1.289,1.289,1.289,1.2825,1.2661,1.258,1.2444,1.2199,1.2172,1.2172,1.2172,1.2172,1.2172,1.2172,1.2058,1.1938,1.183,1.1512,0.9199,0.4097,0.1405,0.0,0.0,0.0,0.0,0.0,0.0,0.0,0.0,0.0,0.0,0.0,0.0,0.0,0.0,0.0,0.0,0.0,0.0,0.0,0.0,0.0,0.0,0.0,0.0,0.0,0.0,0.0,0.0,0.0,0.0,0.0,0.0,0.0,0.0,0.0,0.0,0.0,0.0,0.4166,0.5812,0.4554,0.5785,0.6997,0.777,0.9,1.0644,1.2293,1.5114,1.6835,1.8071,1.9143,1.9678,1.9678,1.9605,1.9613,1.967,1.9557,1.9516,1.9524,1.967,1.9703,1.9695,1.9841,1.9922,1.9938,1.9825,1.9509,1.9195,1.9052,1.894,1.8647,1.8576,1.8309,1.8051,1.7825,1.781,1.7784,1.729,1.7056,1.722,1.7732,1.7228,1.6344,1.5479,1.4476,1.3678,1.3279,1.2684,1.2284,1.2484,1.2489,1.269,1.289,1.2846,1.2765,1.2623,1.252,1.2406,1.2259,1.2199,1.2172,1.2172,1.2172,1.2172,1.2172,1.2102,1.1987,1.1824,1.1534,1.0335,0.8067,0.2652,0.0,0.0,0.0,0.0,0.0,0.0,0.0,0.0,0.0,0.0,0.0,0.0,0.0,0.0,0.0,0.0,0.0,0.0,0.0,0.0,0.0,0.0,0.0,0.0,0.0,0.0,0.0,0.0,0.0,0.0,0.0,0.0,0.0,0.0,0.0,0.0,0.0211,0.0623,0.4146,0.6378,0.648,0.6521,0.7556,0.958,0.9903,1.216,1.6456,1.6378,1.7599,1.9735,1.9565,1.95,1.95,1.9354,1.9378,1.9532,1.9516,1.9516,1.954,1.9857,1.9784,1.9549,1.9873,1.9898,1.976,1.9541,1.9322,1.8839,1.8535,1.8031,1.7598,1.7441,1.7292,1.721,1.7337,1.7304,1.7246,1.6227,1.5544,1.546,1.5649,1.5857,1.5428,1.3284,1.2868,1.2474,1.1468,1.1278,1.1483,1.1884,1.2084,1.2284,1.2674,1.2776,1.27,1.2481,1.2294,1.2352,1.2341,1.2237,1.2172,1.2172,1.2172,1.2172,1.2172,1.2172,1.2063,1.183,1.1544,1.1443,1.1514,0.4295,0.0354,0.0,0.0,0.0,0.0,0.0842,0.0842,0.0,0.0,0.0,0.0,0.0,0.0,0.0,0.0,0.0,0.0,0.0,0.0,0.0,0.0,0.0,0.0,0.0,0.0,0.0,0.0,0.0,0.0,0.0,0.0,0.0,0.0,0.0,0.0,0.0,0.1444,0.4933,0.4285,0.4679,0.6531,0.6499,0.7484,0.9689,1.1273,1.3484,1.6144,1.7886,1.8893,1.937,1.9329,1.9386,1.9508,1.9475,1.9565,1.9719,1.9573,1.9516,1.9508,1.9451,1.9459,1.9508,1.9044,1.8891,1.8954,1.8421,1.7886,1.7757,1.769,1.7584,1.7285,1.7247,1.7009,1.658,1.6479,1.5696,1.4896,1.458,1.3941,1.329,1.24,1.2652,1.289,1.217,1.1818,1.1459,1.1173,1.1225,1.1282,1.1483,1.1483,1.1454,1.157,1.1931,1.1854,1.1294,1.123,1.1357,1.1652,1.1242,1.1416,1.2172,1.1794,1.1794,1.2172,1.2172,1.2063,1.183,1.1797,1.1699,1.1514,0.6931,0.2988,0.0,0.0,0.0,0.0168,0.7249,0.6741,0.0,0.0,0.0,0.0,0.0,0.0,0.0,0.0,0.0,0.0,0.0,0.0,0.0,0.0,0.0,0.0,0.0,0.0,0.0,0.0,0.0,0.0,0.0,0.0,0.0,0.0,0.0,0.0,0.0,0.184,0.6312,0.5469,0.5262,0.6507,0.7481,0.9063,1.1259,1.3456,1.5414,1.7531,1.8529,1.9086,1.9013,1.9183,1.9305,1.9386,1.9297,1.9313,1.9394,1.9297,1.9207,1.9142,1.9224,1.901,1.8749,1.8623,1.8259,1.8061,1.7772,1.7297,1.7006,1.6845,1.6551,1.6294,1.6294,1.6046,1.5792,1.5214,1.4552,1.3879,1.2836,1.2179,1.1703,1.0469,1.0932,1.1376,1.0876,1.0501,1.0325,1.0272,1.0343,1.0609,1.0808,1.1007,1.1187,1.1135,1.1236,1.1348,1.0897,1.0802,1.0931,1.1116,1.0877,1.0848,1.1416,1.1227,1.1227,1.1794,1.1794,1.1903,1.1906,1.19,1.1775,1.1504,0.7662,0.3876,0.0,0.0,0.1711,0.5222,1.0819,1.0813,0.0,0.0,0.0,0.0,0.0,0.0,0.0,0.0,0.0,0.0,0.0,0.0,0.0,0.0,0.0,0.0,0.0,0.0,0.0,0.0,0.0,0.0,0.0656,0.0868,0.0,0.0,0.0,0.0,0.0613,0.2444,0.5661,0.6668,0.727,0.7062,0.9063,1.1249,1.3427,1.5241,1.7151,1.8939,1.8939,1.8858,1.8736,1.9029,1.9167,1.9159,1.9004,1.8939,1.8939,1.8939,1.885,1.8753,1.9053,1.859,1.7982,1.8066,1.769,1.7179,1.7179,1.6774,1.6321,1.606,1.5772,1.5371,1.518,1.5093,1.4831,1.381,1.3471,1.2915,1.119,1.0689,1.0574,0.9582,1.0028,1.046,0.9594,0.9395,0.9408,0.9408,0.9493,0.9765,1.0162,1.0541,1.0918,1.0904,1.0741,1.0647,1.0713,1.0572,1.0502,1.0591,1.0521,1.0469,1.0659,1.0659,1.0848,1.1416,1.1416,1.1741,1.1993,1.1987,1.1835,1.1514,0.8262,0.4444,0.0,0.1395,0.5004,1.0683,1.2552,1.3392,0.0,0.0,0.0,0.0,0.0,0.0,0.0,0.0,0.0,0.0,0.0,0.0,0.0,0.0,0.0,0.0,0.0,0.0,0.0,0.0,0.0,0.0,0.3479,0.4301,0.0423,0.0,0.0,0.0,0.344,0.5057,0.3635,0.7864,0.9878,0.926,1.1259,1.3404,1.5466,1.5783,1.6904,1.8761,1.8761,1.8744,1.8728,1.8777,1.8793,1.8793,1.8769,1.8761,1.8761,1.8761,1.8744,1.8728,1.8383,1.8183,1.7951,1.7032,1.6645,1.6437,1.605,1.5774,1.5466,1.5616,1.5316,1.5026,1.4266,1.3876,1.3676,1.2756,1.1884,1.119,1.0806,1.0302,0.9582,0.9314,0.9499,0.9507,0.9301,0.9354,0.9408,0.9408,0.9546,0.9661,0.9861,1.0193,1.0303,0.9632,0.9924,1.0025,0.9378,0.9349,0.9526,0.9919,0.953,0.9711,1.0659,1.0659,1.0848,1.1416,1.1794,1.2118,1.1993,1.1987,1.1873,1.1623,1.1097,0.7228,0.0,0.6731,1.015,1.0806,1.2143,1.3102,0.0,0.0,0.0,0.0,0.0,0.0,0.0,0.0,0.0,0.0,0.0,0.0,0.0,0.0,0.0,0.0,0.0,0.0,0.0,0.0,0.0857,0.3426,0.5315,0.5905,0.3972,0.145,0.0,0.0,0.1823,0.3426,0.481,0.9456,1.1263,0.9786,1.3018,1.5023,1.5954,1.7217,1.8128,1.8866,1.8663,1.8574,1.8566,1.8468,1.8533,1.872,1.8615,1.8574,1.8574,1.8574,1.8319,1.8049,1.7954,1.736,1.6722,1.6429,1.6081,1.589,1.5513,1.5466,1.5398,1.5309,1.5235,1.4993,1.4046,1.367,1.3293,1.1789,1.1067,1.053,0.9963,0.9611,0.9248,0.9212,0.9203,0.922,0.9269,0.931,0.9367,0.9465,0.955,0.962,0.9673,0.9803,0.9707,0.942,0.9528,0.944,0.9154,0.9142,0.9142,0.9332,0.9382,0.9581,1.0095,1.033,1.053,1.1416,1.1605,1.1768,1.2096,1.2091,1.2009,1.1835,1.1732,0.9212,0.4252,0.6855,0.9216,1.1311,1.2246,1.2843,0.0,0.0,0.0,0.0,0.0,0.0,0.0,0.0,0.0,0.0,0.0,0.0,0.0,0.0,0.0,0.0,0.0,0.0432,0.1507,0.17,0.2736,0.5262,0.6267,0.6643,0.663,0.3083,0.0614,0.0,0.0405,0.2614,0.6774,1.084,1.2442,1.1304,1.4979,1.6828,1.6786,1.8348,1.9077,1.898,1.8671,1.8493,1.8444,1.8306,1.8371,1.8582,1.8493,1.8452,1.8452,1.8311,1.8057,1.7569,1.7458,1.6852,1.6003,1.5891,1.573,1.535,1.535,1.516,1.495,1.4838,1.4617,1.4241,1.3293,1.2916,1.2539,1.0843,1.028,1.009,0.9332,0.9142,0.9142,0.9142,0.9142,0.9171,0.9261,0.9314,0.9387,0.9518,0.9563,0.9599,0.9669,0.9604,0.9522,0.9452,0.935,0.9256,0.9187,0.9158,0.9142,0.9142,0.9394,0.9598,0.9905,1.0158,1.0744,1.1421,1.1605,1.1794,1.2172,1.2172,1.2102,1.1949,1.1786,1.0685,0.8698,0.756,0.8688,1.1851,1.2252,1.2489,0.0,0.0,0.0,0.0,0.0,0.0,0.0,0.0,0.0,0.0,0.0,0.0,0.0,0.0,0.0,0.0,0.0,0.1507,0.5772,0.6356,0.5472,0.3573,0.5217,0.6621,0.657,0.4507,0.2243,0.0202,0.1817,0.4823,0.875,1.141,1.3603,1.5446,1.7772,1.8978,1.8801,1.8834,1.8834,1.898,1.8801,1.8623,1.8452,1.8444,1.8355,1.8217,1.8379,1.8452,1.8468,1.8057,1.792,1.7712,1.6788,1.6159,1.6138,1.543,1.5194,1.5194,1.5194,1.4623,1.387,1.3858,1.311,1.2172,1.1227,1.0848,1.0659,0.9522,0.9142,0.9142,0.9142,0.9142,0.9142,0.9142,0.9142,0.9171,0.9261,0.9412,0.9534,0.9542,0.9616,0.9677,0.9681,0.9604,0.9542,0.9538,0.9391,0.9277,0.9273,0.9199,0.9142,0.9142,0.9526,0.9905,0.9901,1.0853,1.1421,1.1416,1.1794,1.2172,1.2172,1.2172,1.2063,1.183,1.1819,1.1754,1.1464,1.1341,1.1346,1.1986,1.23,1.2489,0.0,0.0,0.0,0.0,0.0,0.0,0.0,0.0,0.0,0.0,0.0,0.0,0.0,0.0,0.0,0.0,0.2544,0.4873,0.6303,0.6486,0.6249,0.5379,0.5947,0.6518,0.6499,0.5652,0.4429,0.222,0.5416,0.8179,0.9938,1.4421,1.6623,1.6028,1.8167,1.9224,1.9159,1.9102,1.9102,1.9159,1.898,1.86,1.8232,1.8311,1.797,1.725,1.7797,1.8255,1.8468,1.8065,1.7751,1.7365,1.6529,1.6131,1.5725,1.5384,1.4944,1.4361,1.4266,1.367,1.2733,1.2733,1.2544,1.1983,1.1037,1.0659,1.0469,0.9332,0.9142,0.9142,0.9142,0.9142,0.9142,0.9142,0.9187,0.924,0.9273,0.942,0.9526,0.9465,0.9579,0.9661,0.9604,0.9616,0.9612,0.955,0.944,0.9342,0.9289,0.9199,0.9142,0.9522,0.9768,1.0158,1.0853,1.1292,1.1683,1.1799,1.2172,1.2172,1.2172,1.2172,1.2058,1.1824,1.1819,1.1726,1.1531,1.1335,1.1541,1.214,1.2131,1.2501,0.0496,0.026,0.0,0.0,0.0,0.0,0.0,0.0,0.0,0.0,0.0,0.0,0.0,0.0,0.042,0.1887,0.482,0.6695,0.6446,0.6611,0.657,0.6526,0.645,0.6401,0.6401,0.6365,0.5762,0.4399,0.7768,1.0519,1.187,1.5995,1.7818,1.7013,1.845,1.9077,1.9077,1.9021,1.8988,1.8988,1.8923,1.8544,1.7876,1.801,1.7663,1.671,1.7063,1.7546,1.7805,1.7406,1.6899,1.6323,1.5691,1.5122,1.4578,1.4438,1.381,1.3228,1.314,1.2544,1.1794,1.1794,1.1416,1.1037,1.028,1.009,1.009,0.9332,0.9142,0.9142,0.9142,0.9142,0.9142,0.9142,0.9216,0.9273,0.924,0.9375,0.9489,0.9457,0.9526,0.9587,0.9591,0.9616,0.9624,0.9595,0.9485,0.9387,0.933,0.9411,0.9522,0.9901,1.0149,1.0735,1.1421,1.1672,1.1873,1.2178,1.2172,1.2172,1.2172,1.2172,1.2058,1.1824,1.1819,1.1699,1.1455,1.1472,1.1894,1.2539,1.2476,1.2823,0.0,0.0,0.0,0.0,0.0,0.0,0.0,0.0,0.0,0.0198,0.0,0.0,0.0,0.0206,0.1642,0.58,0.6436,0.6436,0.6635,0.633,0.6259,0.6455,0.6352,0.6281,0.6281,0.6284,0.6286,0.6289,0.9099,1.187,1.4316,1.5519,1.6976,1.8988,1.8818,1.8728,1.8728,1.855,1.8452,1.8444,1.8631,1.8436,1.774,1.7537,1.725,1.6757,1.6551,1.6524,1.6479,1.6277,1.5588,1.4629,1.3914,1.3181,1.2324,1.221,1.2167,1.2167,1.2167,1.1411,1.0654,1.0659,0.9901,0.9142,0.9142,0.9142,0.9142,0.9142,0.9142,0.9142,0.9142,0.9142,0.9142,0.9142,0.9212,0.9252,0.9163,0.9277,0.9424,0.9514,0.9465,0.9461,0.9636,0.9595,0.9571,0.9661,0.9518,0.9403,0.9403,0.9632,0.9901,0.9901,1.0848,1.1416,1.1416,1.1983,1.2172,1.2172,1.2172,1.2172,1.2172,1.2172,1.2063,1.183,1.1824,1.1705,1.146,1.1988,1.2273,1.2667,1.3044,1.3167,0.1014,0.0,0.0,0.0,0.0,0.0,0.0154,0.0,0.0871,0.3862,0.2119,0.0398,0.1993,0.3421,0.4849,0.5999,0.6499,0.6551,0.6458,0.6455,0.6428,0.6341,0.63,0.6281,0.6281,0.624,0.6833,0.85,1.0825,1.3205,1.5532,1.7407,1.8576,1.8988,1.8931,1.885,1.8728,1.8671,1.8327,1.7695,1.7868,1.7365,1.6442,1.5932,1.5285,1.4186,1.3852,1.3468,1.3254,1.4525,1.4931,1.4629,1.3157,1.2612,1.251,1.23,1.1668,1.1106,1.0914,1.0357,0.9432,0.95,0.9332,0.9142,0.9142,0.9142,0.9142,0.9142,0.9142,0.9142,0.9142,0.9142,0.9142,0.9142,0.9163,0.9175,0.915,0.9183,0.9224,0.9248,0.9338,0.9403,0.9395,0.942,0.9452,0.9477,0.9387,0.9507,0.97,0.9789,1.009,1.0848,1.1227,1.1605,1.1983,1.2172,1.2172,1.2172,1.2172,1.2172,1.2172,1.2172,1.2102,1.1944,1.1944,1.1824,1.1585,1.1588,1.2009,1.2667,1.3291,1.3418,0.1363,0.1618,0.1785,0.1365,0.0,0.0,0.1306,0.1073,0.1615,0.4193,0.3479,0.2458,0.2882,0.4688,0.6106,0.6061,0.636,0.6417,0.6343,0.6341,0.6322,0.6251,0.6218,0.6213,0.624,0.6185,0.715,0.9208,1.1304,1.3867,1.7035,1.8435,1.8956,1.8769,1.8688,1.8598,1.8493,1.8166,1.7608,1.6665,1.6569,1.5888,1.4497,1.4192,1.3594,1.274,1.2379,1.1973,1.1569,1.2329,1.2679,1.2783,1.178,1.1263,1.0973,1.085,1.0459,0.9942,0.9937,0.9594,0.9073,0.9126,0.9142,0.9138,0.9097,0.9114,0.9126,0.9052,0.9056,0.9085,0.9085,0.9114,0.9142,0.9142,0.9142,0.9142,0.9142,0.9142,0.9154,0.9195,0.9252,0.9305,0.933,0.9346,0.9367,0.9403,0.9334,0.9474,0.9854,1.0153,1.0469,1.1416,1.1605,1.1794,1.2172,1.2172,1.2172,1.2172,1.2172,1.2172,1.2172,1.2172,1.2112,1.1993,1.1987,1.1873,1.1634,1.1671,1.205,1.2582,1.3114,1.3263,0.1873,0.1885,0.1936,0.1805,0.1876,0.0,0.3018,0.2757,0.2658,0.2994,0.4476,0.5286,0.3668,0.5039,0.6409,0.6266,0.6356,0.6234,0.6264,0.6229,0.6194,0.618,0.6136,0.6125,0.6175,0.6128,0.7071,0.9428,1.1745,1.468,1.8488,1.8504,1.8431,1.846,1.8062,1.7957,1.7957,1.7079,1.6174,1.5223,1.4692,1.3829,1.2692,1.2275,1.2084,1.1976,1.1271,1.1099,1.1099,1.0209,0.9913,1.0178,0.9988,0.9503,0.8852,0.8844,0.8893,0.8967,0.8987,0.9044,0.9118,0.9138,0.9138,0.9114,0.9032,0.9056,0.9081,0.8918,0.8938,0.9007,0.9007,0.9077,0.9142,0.9142,0.9142,0.9142,0.9142,0.9142,0.9167,0.9248,0.9199,0.9191,0.935,0.9314,0.9293,0.9367,0.9314,0.9457,1.0033,1.0525,1.1037,1.1416,1.1983,1.2172,1.2172,1.2172,1.2172,1.2172,1.2172,1.2172,1.2172,1.2172,1.2123,1.2009,1.1982,1.1862,1.1634,1.1967,1.2308,1.2466,1.2797,1.2991,0.2029,0.2024,0.2024,0.2007,0.2034,0.0,0.2919,0.3452,0.406,0.5531,0.6074,0.6483,0.6394,0.7219,0.7812,0.7252,0.7234,0.7039,0.6364,0.6237,0.6226,0.6128,0.6147,0.6155,0.612,0.6104,0.7616,1.1232,1.5127,1.7702,1.8501,1.7741,1.7725,1.8452,1.6636,1.611,1.6849,1.5364,1.4243,1.3477,1.3052,1.2484,1.1627,1.0763,1.0406,1.0387,0.9496,0.9143,0.9143,0.8964,0.9375,1.0173,0.9195,0.8865,0.8754,0.8685,0.8673,0.8705,0.8848,0.8909,0.895,0.9097,0.9093,0.9032,0.9011,0.8967,0.8918,0.8881,0.8938,0.9007,0.9007,0.9077,0.9142,0.9142,0.9142,0.9142,0.9142,0.9142,0.915,0.9167,0.9154,0.9154,0.9187,0.9183,0.9175,0.9191,0.956,0.9932,1.0497,1.1052,1.1416,1.1983,1.2172,1.2172,1.2172,1.2172,1.2172,1.2172,1.2172,1.2172,1.2172,1.2172,1.2161,1.2134,1.1949,1.1781,1.1634,1.1971,1.1958,1.1956,1.2709,1.2901,0.2262,0.2109,0.2106,0.2091,0.2465,0.0,0.0,0.3742,0.4646,0.5785,0.6144,0.6253,0.6616,0.7221,0.7607,0.7175,0.7066,0.7041,0.6799,0.6535,0.6112,0.6022,0.6038,0.6055,0.6055,0.6027,0.7504,1.1036,1.4639,1.671,1.6627,1.6146,1.6146,1.6627,1.5434,1.5025,1.5385,1.414,1.3095,1.1889,1.1357,1.0794,1.003,0.9496,0.9322,0.9322,0.8786,0.8607,0.8607,0.8607,0.899,0.9383,0.8803,0.8636,0.8664,0.8624,0.8636,0.8685,0.8771,0.8832,0.8885,0.8979,0.8979,0.893,0.8885,0.8811,0.875,0.8791,0.8869,0.8938,0.8938,0.904,0.9142,0.9142,0.9142,0.9142,0.9142,0.9142,0.9142,0.9142,0.9142,0.9142,0.9142,0.9142,0.9142,0.9142,0.9332,0.9711,1.0659,1.0848,1.1416,1.2172,1.2172,1.2172,1.2172,1.2172,1.2172,1.2172,1.2172,1.2145,1.2085,1.214,1.2145,1.208,1.1851,1.1667,1.1547,1.1478,1.1502,1.1446,1.1998,1.2203,0.2936,0.2762,0.2765,0.2614,0.3082,0.353,0.0,0.0,0.0,0.5681,0.5855,0.608,0.6505,0.6877,0.7072,0.7215,0.702,0.6931,0.7405,0.6752,0.6374,0.6347,0.641,0.646,0.6844,0.7121,0.8171,1.0623,1.3245,1.462,1.4647,1.455,1.4563,1.4654,1.435,1.4029,1.3693,1.2836,1.1889,1.066,1.0021,0.9282,0.8607,0.8591,0.8591,0.8607,0.8607,0.8607,0.8607,0.8607,0.8599,0.8583,0.8583,0.8591,0.8607,0.8587,0.8636,0.8713,0.873,0.8783,0.8848,0.8864,0.886,0.8828,0.8738,0.8664,0.8624,0.8689,0.8775,0.8844,0.8844,0.8979,0.9118,0.9118,0.9118,0.9122,0.9138,0.913,0.9122,0.9142,0.9142,0.9142,0.9142,0.9142,0.9142,0.9142,0.9332,0.9711,1.0659,1.0848,1.1227,1.2172,1.2172,1.2172,1.2172,1.2172,1.2172,1.2172,1.2172,1.2118,1.1993,1.2063,1.2047,1.1922,1.1732,1.1563,1.1422,1.1204,1.109,1.1063,1.1453,1.1501,0.5286,0.5121,0.4636,0.419,0.4393,0.454,0.4652,0.0,0.53,0.6461,0.0,0.7017,0.7689,0.0,0.0,0.7632,0.7776,0.7743,0.7178,0.7407,0.7697,0.8344,0.8273,0.8644,0.9807,1.1205,1.2077,1.2503,1.3722,1.4477,1.4455,1.35,1.3494,1.4489,1.2505,1.1754,1.239,1.0862,0.9811,0.9378,0.8756,0.8452,0.8603,0.8526,0.853,0.8607,0.8607,0.8607,0.8607,0.8607,0.8558,0.8489,0.8489,0.8538,0.8599,0.8517,0.8546,0.8632,0.8709,0.8742,0.8762,0.8844,0.8815,0.8734,0.8648,0.8615,0.8611,0.8619,0.8685,0.875,0.875,0.8885,0.9024,0.9024,0.9024,0.9044,0.9126,0.9081,0.9048,0.9126,0.9142,0.9142,0.9142,0.9142,0.9142,0.9142,0.9901,1.0469,1.0659,1.1416,1.1983,1.2172,1.2172,1.2172,1.2172,1.2172,1.2172,1.2172,1.2172,1.2118,1.1993,1.1906,1.1803,1.1677,1.165,1.1525,1.1291,1.1166,1.1047,1.0938,1.1316,1.1415,0.6524,0.6455,0.6042,0.5883,0.561,0.5454,0.5465,0.5419,0.5632,0.626,0.0,0.0,0.0,0.0,0.0,0.0,0.7545,0.7687,0.7784,0.7567,0.7595,0.7893,0.8245,0.8557,0.9321,1.0273,1.0933,1.0945,1.1992,1.2445,1.2228,1.1986,1.2032,1.2348,1.1635,1.1128,1.1172,1.0254,0.9562,0.9087,0.8582,0.8456,0.8526,0.8489,0.8493,0.853,0.853,0.8497,0.8452,0.8505,0.8477,0.8387,0.8334,0.8366,0.8452,0.8464,0.8497,0.8542,0.8632,0.866,0.8668,0.8705,0.8693,0.8652,0.8619,0.8607,0.8607,0.8607,0.8668,0.8734,0.8734,0.8832,0.893,0.893,0.893,0.8938,0.8979,0.8995,0.902,0.9056,0.9065,0.9065,0.9065,0.9109,0.9142,0.9142,0.9711,1.028,1.0659,1.1227,1.1794,1.2172,1.2172,1.2172,1.2172,1.2172,1.214,1.2069,1.1938,1.1868,1.1889,1.171,1.1618,1.1634,1.1569,1.1411,1.1172,1.1123,1.1003,1.0813,1.0926,1.107,0.7056,0.7014,0.6938,0.6949,0.6579,0.6234,0.6058,0.6189,0.6345,0.6655,0.6911,0.0,0.0,0.0,0.7485,0.75,0.0,0.7928,0.8259,0.8217,0.8233,0.8329,0.9013,0.9537,0.9856,1.0151,1.0309,1.0118,1.0672,1.0854,1.0645,1.0808,1.0895,1.0873,1.0954,1.0662,1.0149,0.9802,0.9302,0.8813,0.8511,0.8387,0.8432,0.8407,0.8411,0.8432,0.8432,0.8395,0.8338,0.8407,0.8379,0.8289,0.8223,0.8223,0.8272,0.8362,0.8428,0.8481,0.8546,0.8587,0.8607,0.8607,0.8607,0.8607,0.8607,0.8607,0.8607,0.8607,0.8652,0.8701,0.8701,0.8766,0.8832,0.8832,0.8832,0.884,0.8864,0.8905,0.8942,0.8967,0.8971,0.8971,0.8971,0.9024,0.9069,0.9257,0.9655,1.0239,1.08,1.1207,1.1794,1.2172,1.2172,1.2172,1.2172,1.214,1.2069,1.1949,1.1748,1.1677,1.1764,1.1569,1.1498,1.1585,1.1498,1.134,1.1101,1.1101,1.0976,1.0737,1.0737,1.0737,0.6709,0.7016,0.6968,0.6657,0.6668,0.6594,0.6424,0.7005,0.7707,0.813,0.8898,0.9373,0.9528,0.9163,0.8775,0.8401,0.8723,0.0,0.0,0.9398,1.0101,1.0163,1.1511,1.2654,1.3302,1.265,1.2006,1.1682,1.0981,1.0526,1.0373,1.0405,1.0509,1.0737,1.0748,1.0247,0.9416,0.9416,0.8959,0.8203,0.8117,0.8166,0.8334,0.8248,0.8256,0.8338,0.8338,0.8338,0.8334,0.8338,0.8285,0.8203,0.8199,0.8146,0.8081,0.8174,0.8317,0.8473,0.8477,0.8534,0.8607,0.8607,0.8607,0.8607,0.8607,0.8607,0.8607,0.8607,0.8611,0.8611,0.8611,0.8677,0.8738,0.8738,0.8738,0.8762,0.8852,0.8803,0.8771,0.886,0.8877,0.8877,0.8877,0.8877,0.9065,0.9429,1.0069,1.0688,1.1061,1.172,1.2172,1.2172,1.2172,1.2172,1.2172,1.2063,1.1944,1.183,1.1705,1.1639,1.1639,1.152,1.1455,1.146,1.1455,1.134,1.1101,1.1101,1.0976,1.0737,1.0737,1.0737,0.0,0.0,1.0767,0.9497,0.0,0.0,0.7452,0.7622,0.7966,0.8155,0.866,0.9018,0.8887,0.8728,0.858,0.862,0.8995,0.915,0.0,0.9291,0.9645,1.0264,1.0809,1.1389,1.1769,1.1286,1.0859,1.0534,1.0347,1.0125,1.0134,1.0297,1.0454,1.0612,1.0693,1.0404,0.9903,0.9574,0.9086,0.845,0.8311,0.8183,0.8244,0.8211,0.8215,0.8244,0.8244,0.8211,0.8158,0.8219,0.8191,0.8109,0.8109,0.8089,0.8072,0.8166,0.8277,0.8399,0.9224,0.9468,0.9674,1.0209,1.003,0.9496,0.9496,0.9095,0.853,0.8591,0.8562,0.853,0.8591,0.8628,0.8652,0.8652,0.8652,0.866,0.8689,0.8717,0.8742,0.8775,0.8779,0.8982,0.9228,0.9369,0.9347,0.9228,0.9815,1.0416,1.0674,1.1465,1.208,1.2161,1.2096,1.2053,1.2053,1.1868,1.1737,1.1699,1.1585,1.1514,1.1514,1.1476,1.1417,1.1335,1.1335,1.1215,1.0982,1.0982,1.0895,1.0737,1.0737,1.0737,1.2873,1.2949,0.0,1.1565,1.1025,0.0,0.928,0.0,0.9674,0.9679,0.9924,1.0285,1.0542,0.9937,0.9404,0.9707,0.9699,0.9689,0.0,0.9471,0.9698,1.0157,1.0232,1.0405,1.0629,1.0417,1.0155,0.9763,0.9759,0.9844,0.9824,1.0101,1.0329,1.0492,1.0655,1.0404,0.9903,0.9574,0.9068,0.8403,0.829,0.815,0.815,0.815,0.815,0.815,0.815,0.8117,0.8064,0.8125,0.8117,0.806,0.806,0.8232,0.8575,0.8298,0.8398,0.9047,1.0087,1.053,1.0555,1.1223,1.0682,0.9969,0.993,0.9171,0.8436,0.8493,0.8468,0.8444,0.8534,0.8558,0.8566,0.8599,0.8607,0.8607,0.8607,0.8652,0.8689,0.8689,0.8689,0.8709,0.913,0.9295,0.9481,0.9364,1.0165,1.0591,1.062,1.1403,1.202,1.2096,1.1998,1.1911,1.1868,1.1721,1.1618,1.1574,1.1498,1.1455,1.1455,1.1411,1.1395,1.14,1.1275,1.1156,1.1047,1.096,1.0857,1.0737,1.0737,1.0737]}]]